[{"header": {"dx": 0.06612293990616946, "dy": 0.0552356325346848, "nx": 98, "ny": 59, "la1": 35.046912555036876, "la2": 31.78801023549047, "lo1": -121.43107172385933, "lo2": -114.95102361305473, "refTime": "2026041212", "parameterCategory": 1, "parameterNumber": 2}, "data": [14.75, 14.75, 14.71, 14.71, 14.7, 14.7, 14.69, 14.7, 14.7, 14.71, 13.82, 11.51, 12.44, 11.02, 10.08, 10.58, 10.65, 10.73, 9.6, 7.59, 6.2, 5.2, 4.8, 4.8, 6.44, 6.98, 6.7, 5.52, 5.75, 4.15, 4.15, 4.15, 2.1, -0.0, -8.94, 9.39, 10.28, 8.94, 7.6, 3.6, 1.67, 1.93, 5.2, 9.17, 12.27, 13.99, 15.93, 17.43, 16.39, 14.39, 10.79, 10.37, 9.84, 9.84, 11.09, 11.16, 11.5, 11.77, 11.77, 12.21, 12.45, 11.99, 9.17, 5.8, 5.8, 9.48, 11.28, 12.66, 13.7, 14.7, 15.09, 14.47, 13.34, 12.01, 12.45, 12.44, 12.14, -9.48, -13.86, -12.14, -9.97, -9.6, -9.6, -9.2, -8.23, -8.03, -6.44, -5.0, 0.0, 7.24, 7.73, 8.85, 8.85, 9.84, 10.37, 9.17, 12.96, -0.0, 14.3, 14.75, 14.71, 14.71, 14.7, 14.7, 15.14, 15.14, 14.7, 14.71, 13.38, 12.88, 11.51, 10.73, 11.46, 11.02, 10.22, 11.62, 9.6, 5.29, 2.93, 2.37, 4.48, 5.2, 5.52, 6.44, 6.17, 4.6, 3.98, 1.84, 1.64, 3.32, 3.68, 1.84, -8.05, -8.49, 8.05, 8.05, 8.49, 6.32, 1.93, 2.82, 9.17, 11.17, 15.2, 16.96, 18.26, 17.43, 15.77, 12.25, 10.55, 9.96, 10.55, 10.37, 10.73, 11.75, 11.72, 11.99, 12.21, 12.21, 12.25, 9.17, 5.8, 4.81, 6.67, 10.12, 11.64, 12.98, 14.42, 15.41, 16.22, 15.99, 14.3, 12.96, 12.96, 12.83, 11.2, -9.48, -13.86, -12.14, -9.97, -9.6, -9.6, -9.2, -8.23, -8.03, -6.44, -5.0, 0.0, 7.24, 7.73, 8.85, 8.85, 9.84, 10.37, 9.17, 12.96, -0.0, 14.3, 14.75, 14.71, 14.71, 14.71, 14.7, 15.14, 15.14, 15.15, 14.26, 12.48, 10.26, 11.53, 11.62, 10.73, 10.58, 11.09, 11.09, 8.73, 5.6, 1.84, -0.0, 2.28, 4.48, 6.44, 6.42, 6.95, 5.9, -0.0, -0.0, -0.0, 1.38, 2.37, 3.32, 2.12, -0.0, 3.6, 8.0, 8.91, 4.6, 1.91, 7.13, 12.57, 16.44, 19.08, 19.64, 19.64, 17.78, 13.01, 11.92, 11.6, 11.16, 10.79, 11.26, 11.2, 11.99, 12.25, 11.99, 12.6, 12.45, 11.64, 6.67, 4.1, 5.8, 8.1, 10.79, 11.6, 12.66, 13.29, 14.07, 14.79, 16.12, 15.18, 13.41, 12.96, 12.52, 10.41, -10.12, -13.86, -13.41, -11.62, -11.62, -10.96, -9.97, -9.55, -9.2, -8.82, -5.0, 0.0, 6.7, 9.8, 9.31, 8.59, 9.48, 9.17, 12.96, 12.96, 13.41, 14.3, 14.3, 14.75, 14.71, 14.71, 14.7, 15.14, 15.14, 14.7, 13.82, 12.04, 10.62, 12.0, 11.18, 11.18, 11.18, 11.53, 11.95, 8.53, 3.53, 1.84, -0.0, -0.0, 3.68, 5.32, 7.9, 7.27, 6.95, -0.0, -4.6, -4.15, -1.44, 1.16, 3.77, 4.2, 5.21, 5.46, 7.9, 10.4, 3.25, 5.98, 11.73, 16.48, 17.62, 17.26, 16.37, 15.2, 11.91, 11.62, 12.04, 10.73, 11.6, 11.6, 10.87, 10.87, 11.6, 11.85, 12.45, 12.94, 12.72, 9.17, 2.13, 3.96, 8.1, 9.17, 9.84, 9.76, 9.97, 10.43, 11.06, 12.57, 12.96, 13.92, 12.5, 11.71, 12.07, -5.4, -9.48, -15.65, -13.41, -11.62, -12.07, -11.62, -11.18, -11.18, -11.62, -11.28, -2.93, 2.45, 8.05, 11.06, 10.43, 9.48, 12.96, 12.96, 12.96, 13.41, 11.99, 14.3, 14.3, 14.75, 14.71, 14.71, 14.7, 15.15, 15.15, 14.7, 13.82, 12.04, 10.7, 11.55, 11.18, 10.73, 11.62, 11.55, 11.95, 7.24, 1.98, -0.0, -0.0, -0.0, -0.0, 4.8, 6.71, 7.9, 7.9, 2.71, -2.39, -7.27, -6.17, -1.91, 4.08, 7.15, 7.9, 7.9, 11.12, 13.99, -0.0, 3.77, 9.67, 11.68, 11.64, 11.6, 11.21, 11.71, 12.14, 12.14, 11.6, 10.37, 11.12, 10.41, 10.87, 10.61, 11.33, 12.04, 12.85, 12.85, 12.33, 5.8, 2.13, 4.24, 7.69, 7.34, 7.44, 7.44, 7.44, 7.25, 9.39, 11.52, 13.59, 14.45, 13.96, 6.2, -10.96, -12.52, -12.52, -13.88, -13.86, -11.62, -12.07, -11.62, -11.62, -11.62, -11.84, -5.6, 3.14, 6.9, 10.02, 12.16, 12.39, 12.96, -9.17, 12.96, 12.96, 12.72, 11.16, 14.3, 14.3, 14.3, 14.71, 14.71, 14.7, 15.15, 14.7, 14.7, 13.82, 12.04, 10.26, 11.11, 10.73, 11.18, 11.18, 11.62, 11.91, 5.4, -0.0, -2.45, -2.37, -0.0, -0.0, 3.82, 7.24, 8.22, 6.71, 4.15, 2.19, -0.0, -7.81, -6.95, 8.53, 11.5, 10.3, 10.55, 12.39, 15.59, -5.94, -0.0, 5.31, 8.15, 8.85, 8.85, 8.85, 10.73, 11.2, 10.41, 11.2, 9.42, 10.41, 10.41, 10.87, 12.14, 12.42, 12.42, 12.71, 13.09, 12.45, 3.14, -0.0, 4.24, 5.81, 5.85, 7.0, 7.73, 7.03, 8.05, 8.87, 11.2, 13.15, 14.19, 15.02, 13.28, -11.06, -12.96, -12.52, -11.84, -12.07, -12.07, -12.07, -12.07, -11.62, -11.4, -8.53, 3.04, 8.58, 9.77, 10.75, 10.12, 13.41, 13.41, -12.52, -12.52, 9.17, 9.48, 9.48, 14.3, 14.3, 14.3, 14.75, 14.71, 14.7, 14.7, 14.7, 14.26, 13.82, 12.04, 9.81, 10.73, 10.73, 12.07, 11.18, 12.07, 12.35, 7.51, -0.0, -9.17, -12.79, -12.27, -4.95, 4.81, 10.43, 10.75, 6.4, 4.81, 5.95, 4.8, 2.97, -0.0, 6.95, 8.22, 7.13, 10.12, 11.53, 11.53, -0.0, -0.0, 3.14, 6.9, 8.38, 9.44, 9.76, 9.17, 8.85, 9.66, 10.01, 8.85, 10.35, 11.5, 12.14, 12.44, 12.96, 12.96, 12.96, 12.96, 10.79, -0.0, -0.0, 4.38, 4.24, 5.35, 8.33, 9.66, 10.75, 10.69, 11.72, 13.43, 14.11, 14.94, 16.27, 15.77, 15.77, -14.75, -12.27, -11.84, -11.62, -11.91, -11.03, -10.79, -10.0, -6.2, 0.0, 3.47, 9.39, 11.06, 6.2, 0.0, 12.96, -13.41, -12.96, 0.0, 9.17, 8.05, 6.0, 13.86, 14.3, 14.3, 14.3, 14.75, 14.7, 14.7, 14.7, 14.26, 13.37, 11.15, 9.81, 10.28, 11.18, 12.52, 10.96, 12.07, 12.96, 10.37, 4.24, -9.48, -13.01, -13.41, -15.65, 15.2, 15.2, 11.06, 3.9, 2.89, 8.05, 5.4, 2.93, 3.04, 6.94, 5.75, 5.6, 10.37, 10.27, 9.97, 6.45, -0.0, 4.38, 8.93, 12.01, 11.38, 10.12, 7.68, 8.23, 8.23, 8.59, 8.22, 11.84, 12.39, 12.52, 12.52, 12.42, 12.14, 12.27, 12.07, -0.0, -0.0, 2.54, 2.28, 3.47, 6.8, 9.66, 12.03, 13.68, 14.84, 14.75, 14.75, 15.2, 15.08, 15.53, 16.09, 15.2, 14.75, -0.0, -8.85, -14.3, -13.02, -10.35, -8.94, -8.22, -6.7, 0.0, 4.52, 10.43, 6.2, 0.0, -12.07, -11.2, -11.99, -13.41, 0.0, 8.05, 9.48, 6.0, 13.86, 14.3, 14.3, 14.26, 14.71, 14.7, 14.7, 14.7, 14.26, 12.81, 11.51, 11.51, 12.79, 12.86, 12.42, 12.52, 12.96, 13.41, 13.15, 11.16, -0.0, -9.48, -13.15, -14.3, 12.96, 11.18, 4.4, -0.0, 7.0, 8.58, 4.38, -0.0, 4.81, 7.69, 7.51, 9.67, 11.18, 11.18, 9.75, 7.27, 4.1, 4.66, 8.18, 8.85, 9.3, 5.0, 4.39, 7.34, 8.14, 8.78, 9.48, 9.66, 11.84, 12.07, 11.95, 10.68, 9.08, 8.22, 8.22, -0.0, 2.28, 2.91, 1.83, 3.81, 7.93, 11.68, 15.11, 15.83, 15.27, 13.48, 13.19, 13.19, 13.59, 13.19, 12.42, 13.57, 14.47, 14.75, 13.86, 16.09, 11.7, -11.44, -8.58, -9.67, -5.2, 0.0, 12.96, 12.96, 11.18, 0.0, 12.07, -3.96, -8.85, -9.8, 7.69, 9.8, 9.8, 4.24, 13.86, 13.82, 14.26, 14.26, 14.71, 14.7, 14.7, 14.55, 14.11, 12.81, 12.39, 12.83, 11.84, 13.11, 13.75, 13.28, 14.11, 14.55, 14.75, 11.16, 4.1, -0.0, -0.0, -10.12, 14.3, 8.22, 4.2, 3.39, 8.18, 10.12, 4.66, -0.0, 15.65, 13.86, 8.53, 10.6, 10.73, 6.64, 5.2, 4.1, 3.14, 5.8, 8.22, 8.82, 6.42, 3.92, 3.68, 7.24, 8.61, 8.97, 7.62, 7.69, 7.79, 9.17, 9.66, 10.4, 11.62, 0.0, 0.0, -0.0, 1.19, 3.0, 3.2, 5.63, 7.58, 11.68, 14.71, 15.84, 13.75, 8.05, 8.05, 8.73, 11.44, 12.0, 11.17, 11.44, 12.65, 11.9, 11.87, 14.42, 17.43, 16.54, 0.0, 10.73, 10.28, 8.8, 9.2, 9.2, 11.18, 0.0, 12.07, -0.0, -5.8, 13.41, 9.8, 11.09, 9.8, 4.24, 13.86, 13.82, 14.26, 14.71, 14.7, 14.7, 14.55, 14.55, 14.11, 13.25, 12.83, 13.74, 13.59, 13.59, 13.96, 13.88, 15.04, 15.18, 15.58, 15.91, 9.67, 5.51, 7.6, -0.0, 14.75, 12.96, 7.27, 4.6, 9.17, 11.53, 5.8, -0.0, 12.07, 11.18, 11.18, 10.8, 6.45, -0.0, 2.93, 5.15, 6.4, 7.44, 8.22, 6.2, 2.6, 2.82, 5.52, 6.98, 7.9, 5.92, 5.11, 4.76, 4.16, 3.69, 2.89, 2.8, 4.18, 4.24, -12.07, -1.61, 0.86, 2.72, 3.93, 5.67, 6.8, 7.21, 8.11, 8.13, 8.05, 11.6, 6.94, 6.67, 8.31, 7.93, 8.31, 6.2, 0.0, 0.0, 0.0, 6.0, 15.2, 14.39, 13.03, 12.71, 10.79, 9.96, 9.55, 10.52, 10.73, 0.0, 11.18, 12.07, -0.0, 12.96, 13.41, 13.01, 11.16, 0.0, 13.82, 13.82, 14.26, 14.71, 14.7, 14.55, 14.55, 14.55, 14.11, 13.25, 13.28, 13.74, 14.47, 14.06, 13.18, 12.14, 12.27, 14.25, 15.68, 16.99, 14.79, 11.38, 13.99, 16.09, 13.41, 12.96, 12.52, 7.81, 11.18, 10.28, 9.6, 8.22, 11.62, 9.83, 10.73, 7.27, 4.6, 2.93, 6.94, 8.05, 6.2, 6.0, 8.53, 3.53, -0.0, 1.84, 2.1, 4.8, 2.19, 1.58, 1.6, 2.33, 2.37, 1.53, 1.6, 2.45, 5.46, 7.82, 5.8, -0.0, -0.0, 2.72, 4.05, 4.34, 2.56, 2.39, 3.2, 4.25, 4.78, 7.04, 7.49, 10.12, 12.96, 3.14, 0.0, 0.0, -9.8, -6.0, 0.0, 0.0, 13.86, 9.48, 10.73, 13.19, 10.87, 11.26, 10.68, 10.14, 10.73, 0.0, -10.73, -10.73, -11.18, 12.07, 12.52, 12.52, 0.0, -5.6, 13.82, 13.82, 14.26, 14.7, 14.55, 14.55, 14.55, 14.11, 14.11, 13.7, 13.72, 13.99, 14.47, 14.94, 15.41, 14.97, 14.09, 13.01, 12.53, 13.36, 13.28, 12.72, 13.41, 13.41, 13.41, 13.41, 13.41, 13.41, 12.07, 9.83, 10.73, 11.62, 11.62, 11.18, 7.27, -0.0, 4.6, 5.0, 3.68, 5.4, 5.6, 4.65, 2.37, -0.0, -0.0, -0.0, -0.0, -0.0, -0.0, -0.0, 0.89, -0.0, -0.0, -0.0, -0.0, 1.56, 4.24, 9.2, 6.45, -0.0, -0.0, 3.46, 3.36, 0.96, -0.0, -0.0, 0.85, 2.97, 5.57, 10.53, 11.19, 11.17, 10.75, 10.01, 8.53, 0.0, 0.0, 14.3, 13.41, -8.85, -10.4, 11.62, 12.35, 13.28, 11.26, 12.13, 13.07, 12.14, 10.52, 10.73, 9.83, -10.28, -11.18, 11.62, 0.0, 0.0, -8.53, -10.04, 13.82, 13.82, 13.82, 14.11, 14.55, 14.11, 14.11, 14.07, 14.11, 14.14, 13.99, 13.99, 14.47, 14.94, 15.85, 15.85, 15.85, 14.94, 14.31, 14.16, 14.3, 14.03, 14.75, 15.65, 15.65, 15.65, 14.3, 14.3, 13.86, 12.96, 11.62, 11.62, 12.07, 9.6, 7.27, 6.95, 4.2, 4.6, 3.25, 3.39, 2.82, -0.0, -0.0, -0.0, -0.0, -0.0, -0.0, -0.0, -0.0, -0.0, -0.0, -0.0, -2.63, -2.72, -0.0, -0.0, 4.48, 10.12, 8.78, -0.0, -0.0, 2.91, 1.33, -0.0, -0.0, -0.0, -0.0, 1.19, 5.52, 9.24, 13.08, 11.22, 12.13, 11.14, 11.62, 14.75, 13.02, 11.87, 12.81, 13.99, 0.0, 5.6, 11.62, 13.75, 12.39, 13.09, 13.8, 13.59, 10.75, 10.18, 8.8, -10.28, -11.18, -11.62, -8.93, -8.22, -10.4, -11.28, 13.82, 13.82, 13.82, 14.11, 14.11, 14.11, 14.11, 14.11, 14.11, 13.94, 13.94, 14.42, 14.47, 14.94, 15.82, 16.29, 16.29, 16.26, 15.61, 15.3, 15.2, 15.2, 15.65, 16.09, 16.09, 16.54, 16.09, 15.65, 15.2, 14.75, 13.86, 12.52, 12.07, 10.73, 10.28, 6.95, 4.6, 4.2, 5.0, 4.6, 3.39, -0.0, -0.0, -0.0, -0.0, -0.0, -0.0, -2.28, -2.17, -0.0, -0.0, -0.0, -0.0, -3.8, -0.0, -0.0, 5.46, 8.07, 6.94, 1.38, -0.0, -0.0, -0.0, -1.33, -1.5, -0.0, -0.0, 1.9, 6.9, 9.49, 11.7, 16.6, 14.18, 13.86, 14.3, 11.06, 9.88, 11.06, 12.52, 13.99, 14.61, 13.86, 12.14, 8.85, 4.48, 13.67, 13.86, 13.15, 11.45, 11.3, 10.38, 10.73, -11.18, -11.18, -10.84, -11.28, -11.62, -11.62, 13.82, 13.82, 13.82, 14.11, 14.11, 14.11, 14.11, 14.11, 14.11, 13.88, 14.37, 14.42, 14.47, 14.9, 15.38, 15.85, 16.26, 16.7, 16.7, 16.22, 16.03, 16.09, 16.09, 16.54, 16.54, 16.54, 16.54, 16.09, 15.49, 15.2, 15.2, 15.2, 13.86, 11.62, 10.28, 8.48, 8.18, 8.18, 10.0, 7.59, 3.25, -0.0, -0.0, -0.0, -0.0, -0.0, -2.97, -2.83, -2.83, -3.8, -2.83, -0.0, -0.0, -0.0, -0.0, 3.8, 4.71, 3.65, 3.19, 1.64, -0.0, -0.0, -3.39, -4.8, -3.82, -2.19, -0.0, 2.54, 7.13, 10.12, 12.79, 16.94, 18.74, 16.47, 13.26, 7.49, 9.54, 11.14, 12.26, 13.42, 13.97, 14.39, 13.99, 12.96, 0.0, 0.0, 11.12, 13.41, 13.41, 12.79, 12.35, -10.73, -11.18, -11.18, -9.6, -10.73, -11.18, -11.18, 13.82, 13.82, 14.26, 13.67, 13.67, 14.11, 14.11, 14.55, 14.11, 13.88, 14.37, 14.42, 14.9, 14.9, 15.38, 15.38, 15.53, 16.43, 16.73, 16.7, 16.48, 16.09, 16.09, 16.09, 16.09, 16.09, 16.09, 15.87, 15.93, 16.41, 16.99, 16.99, 16.09, 14.3, 8.94, 8.67, 9.11, 10.18, 9.2, 7.27, -0.0, -0.0, -0.0, -0.0, -0.0, -0.0, -2.97, -4.2, -6.32, -6.32, -8.94, -9.39, -0.0, -0.0, -0.0, -0.0, 2.39, 2.49, 5.0, 5.2, 2.71, -0.0, -5.46, -6.95, -6.95, -4.6, -2.49, -0.0, 6.67, 11.26, 13.86, 15.3, 18.29, 16.82, 9.24, 8.33, 10.76, 13.46, 14.74, 13.49, 12.89, 13.42, 13.02, 12.62, 9.17, -8.22, 2.82, 12.3, 13.41, 13.41, 11.84, 11.18, 11.18, 0.0, 8.22, 10.73, 11.18, 11.18, 13.7, 13.67, 14.11, 14.11, 13.67, 13.67, 14.11, 14.11, 14.55, 14.31, 14.37, 14.86, 14.86, 15.07, 15.08, 15.08, 15.53, 15.97, 16.43, 16.29, 15.95, 16.09, 15.65, 15.2, 15.65, 16.09, 16.54, 16.31, 16.31, 17.26, 17.43, 17.88, 17.88, 16.09, 12.52, 8.49, 8.77, 9.75, 9.6, 7.27, -0.0, -0.0, -0.0, -0.0, -0.0, -0.0, -0.0, -0.0, -0.0, -6.64, -9.39, -9.83, -9.83, -6.95, -0.0, -0.0, -0.0, 4.6, 4.8, 7.9, 3.53, -0.0, -4.6, -5.46, -6.64, -6.64, -6.17, -5.2, 9.6, 11.18, 15.65, 16.99, 20.05, 15.63, 11.7, 12.01, 14.33, 15.63, 17.12, 13.99, 13.19, 13.11, 12.87, 12.71, 0.0, -12.3, -12.96, -12.96, 13.41, 13.86, 11.99, 11.62, 11.62, 11.03, 11.03, 10.6, 10.0, 10.0, 13.7, 13.67, 13.67, 14.11, 13.67, 13.67, 14.11, 14.11, 14.55, 14.55, 14.37, 14.81, 15.49, 15.51, 15.07, 16.71, 14.62, 15.53, 15.53, 15.09, 15.51, 16.09, 15.65, 16.54, 15.2, 16.54, 13.86, 16.99, 16.91, 15.87, 17.43, 17.88, 17.88, 17.43, 15.65, 12.52, 9.83, 9.29, 9.64, 10.6, 9.75, 10.28, 10.28, -0.0, -0.0, -0.0, -0.0, -0.0, -0.0, -0.0, -0.0, -0.0, -0.0, -0.0, -0.0, -0.0, -0.0, 4.8, 5.0, 5.0, 4.8, -0.0, -0.0, -4.96, -6.64, -7.27, -7.27, -0.0, 9.83, 12.07, 13.86, 16.7, 21.76, 20.38, 18.11, 16.54, 16.04, 16.54, 17.41, 17.66, 14.06, 14.19, 13.83, 12.48, 12.96, 9.17, -12.52, 5.2, 12.96, 12.96, 9.8, 10.73, 11.84, 11.28, 11.71, 11.28, 11.28, 11.28, 13.67, 13.67, 13.67, 13.67, 13.67, 13.67, 14.11, 14.11, 14.55, 14.55, 14.37, 14.81, 15.3, 15.51, 15.51, 15.07, 14.64, 14.62, 15.57, 15.12, 16.9, 16.09, 15.87, 17.43, 16.54, 16.54, 16.54, 15.78, 16.66, 16.66, 17.2, 17.43, 17.43, 17.43, 16.99, 15.2, 12.96, 11.62, 10.28, 8.49, 8.94, 9.39, 9.39, 6.64, -0.0, -0.0, -0.0, -0.0, -0.0, -0.0, -0.0, -0.0, -0.0, -0.0, -0.0, -0.0, 4.8, 6.95, 9.2, 7.59, -0.0, -0.0, -3.11, -5.46, -5.63, -6.95, -5.7, -0.0, 10.08, 11.62, 13.36, 15.95, 22.67, 23.25, 18.33, 14.75, 12.36, 12.76, 15.18, 15.17, 15.2, 15.65, 14.75, 13.41, 12.07, 11.62, 9.6, 4.8, 9.67, 11.03, 12.96, 13.41, 12.52, 11.4, 11.71, 11.71, 11.62, 11.62, 13.67, 13.67, 13.67, 13.67, 13.67, 13.67, 13.67, 14.11, 14.55, 14.99, 14.37, 14.81, 15.3, 15.49, 15.51, 15.53, 14.64, 14.5, 12.71, 14.95, 16.88, 16.54, 16.54, 15.99, 16.99, 16.86, 15.93, 16.76, 17.2, 17.53, 17.64, 17.26, 17.43, 17.43, 16.99, 16.54, 14.75, 12.96, 11.62, 10.28, 9.39, 9.83, 9.83, 9.54, 8.4, -0.0, -0.0, -0.0, -0.0, -0.0, -0.0, -0.0, -0.0, -0.0, -0.0, -0.0, 5.7, 5.7, 7.59, -0.0, -0.0, -3.11, -2.39, -5.46, -6.64, -7.27, -3.82, 3.68, 7.9, 10.88, 12.04, 14.61, 20.89, 21.46, 17.26, 12.52, 9.8, 10.49, 11.91, 13.51, 15.3, 15.65, 15.16, 14.14, 13.34, 12.35, 10.8, 8.94, 11.18, 11.02, 11.84, 12.04, 12.39, 11.62, 12.07, 12.07, 11.4, 11.4, 13.67, 13.67, 13.67, 13.63, 13.63, 13.67, 13.67, 14.11, 14.55, 14.75, 14.81, 14.81, 14.86, 15.3, 15.51, 15.51, 15.08, 14.64, 14.5, 16.26, 16.87, 16.51, 16.09, 16.09, 16.99, 17.77, 17.43, 16.54, 16.54, 16.76, 17.2, 17.26, 17.3, 17.43, 16.99, 16.99, 15.55, 13.86, 12.52, 11.18, 10.28, 9.83, 9.39, 9.39, 8.82, 7.81, 7.27, 9.83, -0.0, -0.0, -0.0, -0.0, -0.0, -0.0, -0.0, -0.0, 2.6, 4.8, -0.0, -6.95, -4.96, -4.6, -2.39, -2.28, -3.11, -3.82, -3.96, -0.0, 4.32, 6.44, 6.65, 9.06, 14.3, 15.88, 0.0, 4.21, 8.0, 7.8, 8.2, 9.39, 12.45, 14.75, 15.65, 15.18, 14.42, 13.7, 13.15, 12.72, 12.96, 11.62, 11.18, 10.8, 12.35, 12.07, 11.28, 10.4, 11.4, 11.4, 13.67, 13.67, 13.67, 13.63, 13.63, 13.63, 14.11, 14.11, 14.55, 14.75, 14.81, 14.81, 15.25, 15.3, 15.49, 15.51, 15.08, 14.64, 15.08, 16.41, 16.87, 16.07, 15.2, 15.2, 16.54, 17.43, 17.88, 17.43, 16.99, 16.09, 16.31, 16.37, 16.41, 16.54, 16.54, 16.54, 15.99, 14.66, 12.96, 11.62, 10.73, 10.28, 9.83, 8.94, 7.97, 7.63, 9.33, 9.39, 8.94, 6.01, -0.0, -0.0, -0.0, -0.0, -0.0, -0.0, -0.0, 4.15, 3.53, -6.32, -5.21, -4.6, -2.02, -0.0, -0.0, -3.04, -4.1, -3.53, -2.71, -1.58, -0.0, 4.71, 19.99, 16.48, -7.9, -1.22, 3.47, 5.56, 6.47, 6.47, 7.28, 12.0, 15.55, 16.09, 15.87, 14.75, 14.23, 14.66, 14.3, 13.34, 12.39, 11.45, 12.07, 11.84, 10.79, 11.46, 11.51, 11.51, 13.44, 13.44, 13.67, 13.67, 13.37, 13.37, 13.37, 13.88, 14.31, 14.75, 14.81, 15.25, 15.25, 15.3, 15.3, 15.51, 15.51, 14.64, 15.62, 16.06, 16.51, 16.96, 16.07, 14.75, 15.2, 16.54, 17.43, 17.43, 17.3, 16.82, 16.09, 16.09, 16.09, 16.09, 16.09, 16.09, 16.09, 15.2, 13.41, 11.62, 10.28, 9.83, 10.28, 10.28, 8.87, 7.97, 9.54, 8.91, 8.48, 8.48, 8.0, 3.8, 3.8, -0.0, -0.0, -0.0, -0.0, 1.54, 5.0, 4.8, -4.71, -4.96, -2.97, -0.0, -3.11, -0.0, -0.0, -9.17, -7.59, -6.95, -3.25, 14.66, 23.23, 21.31, 18.0, 7.6, 0.0, 3.36, 4.66, 3.07, 3.62, 5.81, 11.28, 13.7, 14.25, 14.3, 13.86, 13.86, 13.75, 12.79, 12.3, 11.21, 12.07, 12.07, 11.62, 11.62, 11.62, 11.62, 13.44, 13.44, 13.44, 13.44, 13.44, 13.37, 13.37, 13.88, 14.31, 14.75, 14.81, 14.81, 15.25, 15.3, 15.3, 15.49, 15.51, 15.07, 15.17, 16.06, 16.06, 16.95, 16.99, 16.54, 15.65, 15.62, 16.99, 17.43, 17.33, 16.82, 16.82, 16.54, 15.65, 15.65, 16.09, 16.09, 16.09, 15.65, 14.3, 12.07, 10.28, 9.83, 9.83, 10.22, 9.77, 9.32, 8.24, 8.24, 8.67, 9.11, 8.37, 9.97, 6.01, 4.0, 4.0, -0.0, -0.0, -0.0, 4.96, 6.95, 3.11, -0.0, -0.0, -0.0, -0.0, 13.86, -8.85, -5.6, -3.53, -0.0, 11.18, 12.9, 18.21, 23.03, 19.99, 18.9, 18.85, 5.37, 3.58, 2.16, 1.13, 2.72, 7.38, 12.0, 12.25, 12.66, 12.88, 12.96, 12.72, 10.99, 12.65, 11.99, 12.42, 12.52, 11.28, 10.96, 11.18, 11.18, 13.44, 13.44, 13.44, 13.44, 13.44, 13.37, 13.37, 13.88, 14.31, 14.31, 14.75, 14.81, 15.25, 15.25, 15.3, 15.49, 15.49, 15.51, 15.51, 15.61, 15.62, 16.06, 16.99, 16.99, 16.54, 16.09, 16.09, 16.99, 17.43, 17.33, 16.82, 16.86, 16.54, 16.54, 16.09, 16.09, 16.09, 16.09, 15.65, 13.41, 11.18, 10.28, 9.79, 9.79, 10.22, 10.22, 9.77, 8.73, 8.37, 8.91, 8.91, 8.79, 9.54, 8.18, 6.32, 2.83, -0.0, -0.0, 2.83, 1.75, 3.65, 4.6, 4.0, 4.2, 7.27, 12.52, -5.4, -2.45, 3.98, 8.23, 10.58, 12.79, 13.77, 18.57, 22.83, 18.31, 18.31, 13.28, 0.0, 0.0, 0.0, 1.26, 5.64, 8.58, 9.96, 13.15, 13.28, 13.41, 13.23, 12.87, 14.42, 13.56, 12.89, 12.88, 10.84, 10.0, 11.18, 11.18, 13.44, 13.44, 13.44, 13.44, 13.44, 13.44, 13.37, 13.44, 13.88, 14.31, 14.75, 14.81, 15.25, 14.81, 15.3, 15.49, 15.49, 15.51, 15.51, 15.51, 15.61, 15.61, 16.09, 16.54, 16.54, 16.54, 16.09, 16.54, 16.99, 16.99, 16.88, 16.86, 16.33, 16.88, 16.54, 16.54, 16.54, 16.54, 16.54, 15.65, 13.86, 12.07, 10.73, 9.79, 10.23, 10.23, 10.22, 9.33, 8.67, 8.67, 8.91, 9.33, 9.54, 9.04, 7.87, 3.8, 2.69, 3.6, -0.0, -0.0, 1.84, 6.01, 7.59, 7.44, 4.8, -0.0, -1.91, -0.0, 5.29, 8.55, 10.27, 11.28, 13.63, 16.27, 17.3, 21.0, 18.14, 19.52, 0.0, 0.0, 0.0, 0.0, 1.58, 3.56, 6.94, 10.3, 13.15, 14.16, 13.86, 13.59, 13.59, 15.08, 14.1, 13.37, 12.3, 11.62, 11.18, 11.18, 13.5, 13.5, 13.44, 13.44, 13.44, 13.44, 13.44, 13.44, 13.88, 13.88, 14.31, 14.75, 14.81, 14.81, 14.81, 14.86, 15.49, 15.49, 15.51, 15.51, 15.61, 15.61, 15.61, 15.65, 16.09, 16.09, 16.09, 16.09, 16.54, 16.54, 16.54, 16.47, 16.48, 16.86, 16.88, 16.54, 16.54, 16.99, 16.99, 16.09, 14.75, 12.96, 11.18, 9.83, 10.28, 9.83, 10.22, 9.77, 9.11, 9.11, 9.16, 9.6, 10.04, 9.97, 8.93, 5.9, 4.96, 2.69, -0.0, -0.0, 3.32, 6.98, 7.68, 5.86, 2.97, 1.84, -0.0, -0.0, 8.8, 9.75, 10.84, 12.07, 12.52, 13.41, 15.87, 17.97, 22.21, 18.71, 15.78, 0.0, 2.6, 4.11, 4.0, 1.9, 3.32, 6.21, 10.3, 13.28, 14.3, 14.3, 13.86, 14.75, 15.83, 13.67, 12.62, 11.92, 11.87, 11.87, 13.5, 13.5, 13.5, 13.44, 13.44, 13.44, 13.44, 13.88, 13.88, 13.88, 14.31, 14.75, 15.25, 15.25, 15.25, 14.81, 14.86, 15.05, 15.05, 15.07, 15.51, 15.61, 15.61, 15.61, 15.65, 15.65, 15.65, 16.09, 16.54, 16.54, 16.54, 16.5, 16.47, 16.15, 16.44, 16.54, 16.54, 16.99, 16.99, 16.54, 15.65, 13.41, 11.62, 9.83, 9.39, 9.77, 10.66, 11.35, 11.03, 9.11, 9.6, 9.6, 9.6, 9.97, 9.86, 8.38, 7.59, 4.6, -0.0, -0.0, 5.36, 6.98, 4.2, 3.7, 3.61, 1.5, 3.68, -0.0, 0.0, 9.75, 11.09, 12.22, 12.52, 12.46, 12.79, 15.58, 18.21, 18.78, 18.63, 17.43, 13.02, 6.0, 8.06, 7.1, 2.54, 2.54, 3.14, 6.2, 11.9, 14.3, 14.03, 13.7, 13.48, 14.28, 13.43, 12.17, 11.8, 11.8, 13.5, 13.5, 13.5, 13.44, 13.44, 13.44, 13.44, 13.88, 13.88, 13.88, 13.88, 14.75, 14.75, 15.25, 15.68, 15.25, 14.81, 15.05, 15.05, 15.05, 15.51, 15.61, 15.61, 15.61, 15.61, 15.61, 15.2, 15.65, 16.09, 16.09, 16.09, 16.09, 16.05, 16.01, 16.15, 16.46, 16.54, 16.54, 16.99, 16.99, 16.09, 14.3, 12.52, 9.83, 8.01, 9.46, 11.45, 12.56, 12.72, 11.99, 10.7, 8.99, 9.6, 9.54, 9.63, 9.32, 8.24, 6.24, 5.52, 4.4, 6.32, 4.6, 2.33, 2.97, 1.33, 1.33, 3.53, 7.24, 9.39, 4.4, 10.0, 9.66, 12.62, 16.47, 14.24, 14.3, 14.85, 15.02, 17.88, 20.09, 19.63, 16.37, 14.33, 12.79, 12.39, 10.12, 6.2, 9.8, 13.86, 13.88, 11.17, 11.64, 12.45, 13.99, 13.34, 13.19, 12.2, 12.2, 13.07, 13.07, 13.5, 13.5, 13.5, 13.44, 13.44, 13.88, 13.88, 14.31, 14.31, 13.88, 14.75, 14.81, 15.25, 15.25, 15.25, 15.25, 15.49, 15.49, 15.49, 15.49, 15.49, 15.61, 15.61, 15.61, 15.17, 14.75, 15.2, 15.65, 16.09, 15.65, 15.65, 15.58, 16.01, 16.01, 16.47, 16.48, 16.54, 16.99, 16.5, 15.15, 12.93, 10.69, 8.9, 9.97, 12.58, 13.28, 13.28, 12.6, 11.21, 9.11, 9.06, 8.91, 9.21, 9.2, 8.73, 7.9, 6.24, 7.59, 4.83, 2.97, 2.83, 4.0, -0.0, -1.84, -0.0, 4.4, 7.27, 9.2, 5.46, 7.59, 11.38, 16.38, 19.84, 16.64, 12.26, 10.1, 12.07, 18.55, 21.38, 20.51, 17.16, 14.94, 15.62, 16.06, 15.62, 15.2, 13.59, 12.25, 11.16, 10.99, 11.69, 12.99, 13.8, 13.8, 12.99, 12.99, 12.82, 12.82, 12.82, 13.5, 13.5, 13.25, 13.15, 13.57, 13.57, 13.99, 13.99, 14.31, 14.31, 15.18, 15.25, 15.25, 15.25, 15.68, 15.91, 15.93, 15.93, 15.93, 15.49, 15.49, 15.61, 15.61, 15.17, 14.27, 16.09, 14.75, 15.65, 16.09, 16.09, 15.65, 15.57, 16.01, 16.01, 16.47, 16.48, 16.49, 16.49, 15.6, 13.82, 11.14, 10.16, 11.02, 12.51, 13.86, 13.02, 12.08, 9.97, 8.67, 8.48, 8.48, 8.99, 8.8, 9.2, 8.73, 7.59, 7.27, 5.52, 3.49, 4.71, 4.71, -0.0, -2.06, -2.54, 2.28, 7.27, 8.38, 8.18, 10.08, 12.35, 15.41, 19.51, 21.77, 8.51, 0.0, 6.3, 13.2, 18.44, 18.66, 17.43, 16.09, 16.54, 16.52, 16.92, 15.83, 13.75, 11.97, 10.79, 10.37, 11.16, 12.79, 12.99, 13.39, 12.99, 12.99, 12.82, 12.82, 12.82, 13.25, 13.25, 13.25, 13.15, 13.57, 13.2, 13.99, 13.99, 13.99, 14.31, 14.31, 15.18, 15.25, 15.25, 15.25, 15.46, 15.91, 15.93, 15.93, 15.93, 15.49, 15.05, 15.16, 15.16, 14.27, 13.82, 15.65, 14.75, 15.65, 16.09, 16.09, 16.09, 16.01, 16.01, 16.47, 16.47, 16.48, 16.54, 16.05, 14.26, 12.03, 10.6, 11.46, 12.58, 13.37, 13.37, 11.21, 9.11, 8.67, 8.71, 8.71, 9.06, 9.42, 9.33, 8.72, 8.15, 7.27, 6.24, 4.71, 5.21, 4.46, -0.0, -0.0, -0.0, 2.69, 8.8, 9.96, 9.75, 10.73, 11.51, 14.3, 18.99, 24.58, 18.78, -7.44, 1.61, 10.97, 15.79, 16.5, 15.27, 13.23, 16.76, 17.85, 17.81, 16.4, 13.99, 11.85, 8.85, 8.53, 11.26, 12.66, 13.57, 13.62, 13.2, 13.2, 12.82, 12.82, 12.82, 12.82, 13.25, 12.93, 12.93, 13.2, 12.79, 13.62, 13.43, 13.84, 13.86, 13.99, 14.75, 15.18, 15.18, 15.25, 15.25, 15.91, 15.91, 16.37, 15.93, 15.93, 15.05, 15.05, 15.16, 14.71, 14.72, 14.72, 14.75, 15.2, 15.61, 15.65, 16.09, 16.03, 16.01, 16.01, 16.47, 16.54, 16.54, 16.54, 15.2, 12.93, 11.49, 11.49, 12.14, 13.37, 13.37, 11.64, 9.49, 9.11, 9.11, 9.15, 9.54, 9.68, 9.75, 9.2, 7.81, 6.98, 6.97, 5.46, 4.96, 2.28, -0.0, 1.67, 4.46, 6.7, 9.11, 10.08, 9.04, 10.4, 12.07, 13.41, 17.88, 22.86, 20.09, 16.79, 0.0, 9.61, 13.9, 15.49, 11.7, 7.6, 15.77, 17.43, 17.88, 16.07, 13.63, 9.77, 6.21, 6.94, 10.01, 12.58, 13.59, 13.99, 13.44, 13.44, 12.52, 12.52, 12.52, 12.52, 12.93, 12.93, 12.93, 12.79, 13.19, 12.95, 13.34, 13.34, 13.84, 13.43, 13.19, 14.75, 14.75, 14.75, 14.81, 15.25, 15.91, 15.91, 15.91, 15.93, 15.49, 15.05, 15.05, 14.6, 14.71, 15.17, 15.17, 15.17, 15.17, 15.17, 15.65, 15.65, 16.01, 16.01, 16.46, 16.54, 16.54, 16.09, 15.2, 13.41, 12.03, 11.49, 12.35, 13.19, 13.19, 12.75, 10.35, 9.92, 9.54, 9.54, 9.54, 9.68, 10.08, 9.2, 7.81, 6.97, 7.56, 6.97, 4.2, 2.28, 2.28, 2.83, 5.69, 8.24, 8.82, 7.81, 5.72, 6.45, 10.79, 12.85, 15.6, 17.41, 19.09, 18.42, 19.67, 15.24, 10.75, 16.09, -0.0, 11.7, 15.27, 16.05, 16.05, 13.57, 11.5, 9.17, 7.51, 8.53, 11.87, 12.27, 13.23, 13.72, 13.57, 13.57, 12.52, 12.52, 12.52, 12.52, 12.93, 12.93, 13.35, 12.79, 13.19, 12.45, 12.82, 12.45, 13.03, 12.27, 12.9, 14.11, 14.75, 14.75, 14.75, 15.25, 15.25, 15.91, 15.91, 15.91, 15.49, 15.05, 15.05, 14.71, 14.6, 15.16, 15.17, 15.17, 14.72, 14.72, 14.71, 15.2, 15.65, 15.57, 16.09, 16.09, 16.09, 16.09, 15.65, 13.41, 12.03, 11.58, 11.91, 12.79, 13.19, 12.75, 11.44, 10.12, 9.68, 9.7, 9.7, 9.68, 10.08, 9.2, 7.81, 7.56, 8.53, 7.27, 4.4, 1.58, 2.69, 6.64, 7.63, 8.49, 6.32, 2.17, 2.95, 5.7, 10.18, 12.93, 14.58, 15.59, 16.76, 17.8, 19.93, 22.7, 18.91, 15.65, -0.0, 13.57, 13.59, 12.87, 9.8, 6.0, 9.17, 10.37, 11.6, 11.2, 11.87, 12.3, 12.71, 13.23, 13.32, 13.32, 12.1, 12.1, 12.52, 12.63, 13.05, 12.93, 13.35, 13.35, 13.62, 12.95, 12.45, 12.0, 12.16, 12.89, 12.51, 13.48, 14.66, 14.75, 14.75, 15.43, 15.43, 15.46, 15.91, 15.91, 15.46, 15.05, 15.05, 14.6, 14.6, 15.05, 15.16, 15.17, 14.72, 14.72, 14.72, 14.71, 14.75, 15.2, 15.65, 16.09, 16.09, 16.09, 15.2, 12.96, 10.28, 10.69, 11.58, 12.47, 12.91, 12.91, 12.02, 11.13, 10.24, 9.79, 9.7, 9.68, 10.08, 9.4, 6.98, 7.27, 8.53, 8.53, 4.4, 3.8, 4.71, 7.81, 7.81, 4.71, -0.0, -0.0, 2.28, 6.17, 10.19, 14.39, 16.27, 14.68, 14.75, 17.43, 20.54, 22.65, 20.89, 16.48, 15.2, 13.86, 13.15, 11.09, 8.31, 7.44, 11.16, 11.99, 11.6, 12.14, 11.87, 12.96, 12.96, 12.96, 12.96, 13.28, 12.1, 12.1, 12.63, 12.63, 13.05, 13.05, 13.35, 13.35, 14.1, 13.99, 13.59, 14.11, 12.89, 13.2, 13.2, 13.81, 14.13, 14.66, 14.75, 15.43, 15.43, 15.43, 15.46, 15.91, 15.46, 15.02, 14.6, 14.6, 14.6, 14.71, 15.16, 14.71, 14.72, 14.72, 14.62, 14.71, 14.26, 15.2, 15.2, 15.65, 15.65, 16.09, 14.75, 12.07, 9.83, 10.73, 11.62, 12.52, 13.41, 12.96, 12.52, 11.62, 10.68, 9.79, 9.68, 9.49, 9.92, 9.55, 7.9, 7.9, 9.16, 8.53, 7.59, 4.71, 4.46, 7.44, 4.71, -0.0, -0.0, -0.0, 2.46, 5.29, 9.27, 12.56, 16.75, 18.08, 14.19, 14.65, 17.92, 20.34, 18.29, 15.77, 17.43, 16.09, 9.8, 9.8, 9.8, 9.48, 11.16, 12.58, 12.58, 12.58, 12.52, 12.52, 12.52, 12.14, 12.27, 12.96, 12.1, 12.1, 12.21, 12.89, 13.32, 13.32, 13.75, 13.75, 14.18, 14.42, 15.05, 15.02, 14.9, 14.61, 14.61, 13.81, 13.99, 14.13, 14.66, 14.75, 15.43, 15.43, 15.43, 15.46, 15.46, 15.02, 14.58, 14.6, 14.27, 14.27, 14.71, 14.71, 14.72, 14.72, 14.18, 14.62, 14.26, 14.3, 15.2, 15.2, 15.65, 15.65, 14.75, 12.07, 10.73, 12.07, 13.86, 14.3, 14.3, 13.86, 12.96, 12.01, 10.68, 10.24, 9.68, 9.49, 9.97, 9.38, 8.94, 7.9, 9.16, 9.82, 6.64, 6.64, 4.96, 5.21, 1.67, -0.0, -0.0, 1.47, 2.83, 4.2, 9.08, 10.18, 13.26, 17.17, 19.72, 19.16, 16.71, 13.99, 11.06, 16.54, 17.88, 17.88, 15.2, 9.8, 9.48, 9.48, 12.3, 12.14, 12.52, 12.52, 12.52, 12.14, 11.87, 10.8, 11.21, 12.27, 12.1, 12.1, 12.21, 12.89, 12.89, 13.32, 13.55, 14.03, 14.03, 14.62, 14.62, 14.72, 15.2, 15.2, 14.75, 14.4, 14.47, 14.13, 14.23, 14.66, 14.99, 14.99, 14.99, 15.43, 15.46, 15.46, 14.58, 14.14, 14.27, 14.27, 14.27, 14.71, 14.71, 14.72, 14.27, 14.18, 14.16, 13.81, 14.3, 14.75, 14.75, 15.2, 14.25, 12.47, 11.57, 12.96, 15.2, 15.65, 14.75, 14.3, 13.79, 12.45, 10.68, 9.79, 9.68, 9.54, 9.97, 9.6, 8.93, 8.94, 9.82, 9.27, 8.85, 5.46, 5.21, 5.21, 1.67, -0.0, -0.0, 1.54, 2.97, 4.83, 7.59, 9.08, 9.48, 14.29, 17.51, 21.61, 21.96, 17.59, 15.65, -12.33, -8.8, -13.28, -16.54, 12.96, 12.96, 11.6, 12.96, 12.96, 12.14, 11.2, 11.2, 10.41, 10.41, 8.53, 9.66, 9.66, 11.68, 11.68, 12.1, 12.46, 12.89, 12.89, 13.59, 14.03, 14.03, 14.18, 14.62, 14.72, 14.75, 14.75, 14.75, 14.68, 14.51, 14.51, 14.51, 14.51, 14.95, 14.99, 14.99, 14.99, 15.02, 15.02, 14.58, 14.14, 14.27, 13.82, 13.82, 13.72, 14.16, 14.27, 14.27, 13.74, 13.74, 13.25, 13.86, 14.3, 14.3, 14.3, 13.79, 12.31, 11.88, 13.23, 14.7, 15.2, 14.3, 13.86, 13.41, 12.02, 9.79, 9.35, 9.79, 9.7, 10.08, 9.77, 10.0, 9.3, 9.86, 9.82, 8.22, 7.27, 5.46, 4.2, 2.28, -0.0, -0.0, 1.54, 3.49, 4.6, 7.59, 6.3, 7.82, 10.86, 16.06, 21.61, 23.64, 21.61, 19.72, 19.34, 22.35, -17.11, -17.43, -13.41, 12.52, 12.96, 12.58, 11.6, 10.73, 10.01, 8.85, 7.51, 6.7, 8.53, 8.53, 8.53, 11.68, 11.68, 12.1, 12.46, 12.89, 12.89, 13.55, 13.55, 13.59, 14.18, 14.18, 14.72, 14.75, 14.75, 14.75, 14.7, 14.55, 14.51, 14.51, 14.51, 14.95, 14.95, 14.99, 14.99, 15.02, 15.02, 14.58, 14.14, 13.7, 13.72, 13.28, 13.28, 13.28, 13.72, 14.27, 13.29, 13.29, 13.28, 13.36, 13.41, 13.86, 13.86, 13.34, 11.88, 11.21, 12.58, 14.11, 14.26, 13.36, 12.52, 12.07, 11.18, 9.39, 9.39, 9.8, 9.8, 10.35, 9.96, 10.0, 9.77, 9.86, 9.82, 8.53, 8.53, 5.7, 4.4, 2.28, -0.0, -0.0, 1.75, 4.0, 4.0, 4.2, 6.58, 7.9, 10.01, 12.99, 18.57, 20.76, 21.23, 20.52, 20.97, 23.29, 0.0, -20.12, -15.2, 12.52, 12.3, 10.37, 11.12, 10.01, 10.01, 8.53, 8.85, 8.53, 12.07, 12.07, 12.07, 11.68, 11.68, 12.1, 12.39, 12.89, 12.89, 13.32, 13.55, 13.99, 14.16, 14.16, 14.71, 14.71, 14.71, 14.71, 14.71, 14.55, 14.55, 14.55, 14.55, 14.99, 14.99, 14.99, 14.99, 14.99, 15.15, 14.58, 14.14, 13.7, 13.25, 13.28, 13.28, 13.28, 13.28, 13.28, 13.29, 12.85, 13.29, 13.25, 13.36, 13.41, 13.41, 12.9, 11.44, 11.0, 11.64, 12.94, 13.19, 13.23, 12.03, 11.13, 10.28, 8.94, 9.39, 9.79, 10.12, 9.85, 9.96, 10.0, 10.0, 9.48, 8.93, 8.53, 7.44, 5.4, 4.4, 2.17, -0.0, -0.0, 2.97, 2.97, 3.32, 2.97, 7.27, 8.93, 10.88, 12.6, 13.89, 16.96, 15.71, 17.28, 21.54, 23.96, 25.02, -21.9, -19.67, 16.09, 11.6, 9.17, 8.85, 9.17, 8.53, 8.85, 12.07, 12.07, -0.0, -0.0, -0.0, 11.68, 11.68, 12.1, 12.39, 12.39, 12.82, 12.89, 13.55, 13.99, 13.99, 14.16, 14.16, 14.6, 14.6, 14.58, 14.58, 14.58, 14.58, 14.58, 14.55, 14.7, 15.15, 14.99, 14.99, 14.99, 15.02, 14.58, 14.14, 13.7, 13.7, 13.28, 12.83, 12.83, 12.83, 12.83, 12.85, 12.85, 12.85, 13.28, 12.79, 12.9, 12.96, 12.96, 11.57, 11.13, 11.88, 12.75, 12.75, 12.75, 11.91, 11.0, 9.79, 8.94, 9.39, 9.79, 9.64, 10.04, 10.28, 10.0, 10.0, 9.48, 8.59, 8.53, 7.02, 5.54, 4.6, 2.83, 2.69, 2.97, 2.28, 3.49, 3.65, 5.63, 8.43, 10.18, 10.75, 11.87, 12.62, 11.93, 12.33, 14.86, 20.51, 24.52, 21.74, 22.05, -15.8, 13.28, 11.99, 12.96, -9.17, -8.85, -8.85, -12.07, -8.53, -8.22, -8.53, -8.53, -8.53, 11.68, 11.68, 12.1, 12.39, 12.82, 12.82, 12.82, 13.25, 13.55, 13.99, 13.99, 14.16, 14.6, 14.58, 14.58, 14.58, 14.58, 14.58, 14.58, 14.58, 14.7, 15.15, 15.15, 14.99, 14.99, 15.02, 14.58, 14.14, 13.7, 13.7, 13.25, 12.83, 12.83, 12.39, 12.39, 12.39, 12.41, 12.27, 12.71, 12.83, 12.92, 12.9, 12.96, 12.07, 11.18, 12.01, 12.45, 12.47, 12.31, 11.44, 10.68, 9.79, 8.94, 9.39, 9.79, 9.77, 10.04, 10.18, 10.38, 9.77, 9.1, 8.59, 7.44, 6.7, 5.77, 5.7, 2.83, 2.83, 3.11, 5.7, 4.4, 4.4, 8.8, 9.64, 10.18, 9.58, 9.27, 9.17, 8.91, 8.66, 12.64, 18.84, 22.25, 21.69, 19.18, -10.4, -12.96, -13.41, -12.58, -10.8, -11.2, -11.87, -11.45, -11.03, -11.03, -11.45, -11.45, -11.45, 11.68, 11.68, 12.1, 12.1, 12.39, 12.82, 13.25, 13.25, 13.5, 13.5, 13.94, 13.94, 13.94, 14.58, 14.58, 14.58, 14.58, 14.58, 14.58, 14.14, 14.11, 14.71, 15.15, 14.99, 14.99, 14.99, 14.58, 14.14, 13.7, 13.7, 13.25, 13.28, 12.83, 12.37, 12.39, 11.95, 11.95, 12.27, 12.27, 12.24, 12.37, 12.47, 12.45, 12.07, 11.18, 12.07, 12.45, 12.45, 12.01, 11.12, 10.73, 10.28, 9.39, 8.89, 9.33, 9.77, 10.04, 9.75, 9.96, 9.8, 9.6, 8.24, 7.44, 6.7, 5.77, 5.95, 5.21, 2.97, 4.4, 6.95, 7.27, 8.18, 9.2, 8.23, 3.82, 2.95, 5.2, 6.7, 8.1, 8.91, 10.75, 16.06, 17.86, 20.24, 18.3, -25.03, -18.48, -12.96, -11.62, -9.66, -10.8, -10.4, -11.28, -10.84, -11.71, -12.52, -12.52, -12.52, 11.68, 11.68, 12.1, 12.1, 12.39, 12.82, 13.25, 13.25, 13.25, 13.94, 13.94, 13.94, 14.37, 14.37, 14.58, 14.58, 14.58, 14.58, 14.58, 14.58, 14.55, 14.58, 15.02, 14.99, 14.99, 14.55, 14.58, 14.14, 13.7, 13.25, 13.25, 13.28, 12.83, 12.24, 12.24, 11.8, 11.8, 11.8, 11.8, 12.24, 12.39, 12.37, 12.47, 12.01, 11.55, 12.44, 12.88, 12.44, 11.55, 10.66, 10.28, 9.83, 9.77, 9.33, 9.33, 9.77, 9.6, 9.55, 9.55, 9.8, 9.32, 8.24, 6.98, 6.7, 6.45, 6.44, 4.4, 4.2, 6.95, 8.4, 8.8, -0.0, 2.49, -0.0, -0.0, 1.18, 3.92, 5.2, 6.94, 7.96, 9.8, 12.24, 14.6, 18.04, 20.36, 21.81, -13.86, -12.71, -11.16, -10.79, -10.04, -10.04, -12.14, -12.3, -11.87, -12.96, -12.96, -12.96, 11.68, 11.68, 12.1, 12.1, 12.39, 12.82, 13.25, 13.25, 13.5, 13.94, 13.94, 13.94, 14.37, 14.37, 14.58, 14.58, 14.58, 14.58, 14.58, 14.58, 14.58, 14.58, 15.02, 15.02, 14.55, 14.55, 14.58, 14.14, 13.7, 13.7, 13.25, 13.28, 12.68, 12.2, 12.24, 11.8, 11.8, 11.8, 11.8, 11.8, 11.95, 11.93, 11.91, 12.02, 12.01, 12.45, 12.66, 12.22, 11.55, 10.73, 10.28, 9.79, 9.79, 8.9, 9.34, 9.16, 9.33, 9.42, 9.13, 9.4, 8.93, 7.27, 7.59, 8.22, 7.54, 6.97, 4.6, 5.9, 7.27, 6.95, 5.46, -0.0, -4.83, -3.61, -2.6, -0.0, 3.07, 4.58, 5.4, 8.54, 8.91, 9.48, 11.38, 16.58, 24.39, 0.0, -14.47, -8.85, -0.0, 9.8, 13.86, -11.99, -11.99, -12.39, -9.48, -0.0, -0.0, -0.0, 11.68, 11.68, 11.68, 12.1, 12.39, 12.39, 12.82, 13.25, 13.5, 13.94, 13.94, 14.37, 14.37, 14.37, 14.37, 14.58, 14.58, 14.58, 14.58, 14.58, 14.58, 14.58, 14.58, 14.55, 14.55, 14.55, 14.58, 14.14, 13.7, 13.7, 13.25, 13.25, 12.63, 12.63, 12.24, 11.8, 11.8, 11.36, 11.36, 11.36, 11.95, 11.93, 11.93, 11.46, 12.03, 12.31, 12.75, 12.31, 12.02, 11.18, 10.24, 9.68, 9.68, 8.9, 9.34, 9.21, 9.21, 9.42, 9.33, 8.8, 8.93, 8.03, 8.38, 8.73, 9.42, 7.26, 5.95, 7.27, 6.17, 5.06, 4.83, 1.84, -1.84, -4.4, -3.25, -0.0, 1.58, 3.19, 4.58, 6.63, 8.54, 9.17, 10.82, 15.99, 29.48, 22.35, -7.0, -0.0, 12.52, 14.3, 13.19, 10.12, -14.3, 13.86, -0.0, 9.48, 9.48, 9.48, 11.68, 11.68, 11.68, 12.1, 12.39, 12.39, 12.82, 13.25, 13.25, 13.94, 13.94, 14.37, 14.37, 14.37, 14.37, 14.37, 14.37, 14.58, 14.58, 14.58, 14.58, 14.58, 14.58, 14.55, 14.55, 14.58, 13.94, 13.94, 13.5, 13.25, 13.07, 12.63, 12.63, 12.63, 12.2, 11.8, 11.8, 11.36, 11.36, 11.36, 11.49, 11.49, 11.59, 11.59, 11.59, 11.59, 12.03, 12.03, 12.07, 11.18, 10.69, 10.14, 9.68, 9.34, 8.9, 8.89, 9.21, 8.99, 8.91, 9.21, 8.18, 8.55, 8.03, 9.58, 8.22, 7.54, 6.7, 5.0, 3.82, 3.11, 3.11, -0.0, -0.0, -3.39, -3.25, -1.76, -0.0, 1.84, 3.53, 6.76, 7.85, 9.36, 12.07, 24.86, 29.82, 16.81, -12.01, 9.17, 7.19, 9.8, 11.8, 6.6, 14.75, 14.3, 6.2, 7.69, 7.69, 7.69, 11.68, 11.68, 11.68, 11.68, 12.39, 12.39, 12.82, 12.82, 13.25, 13.5, 13.94, 13.94, 14.37, 14.37, 14.37, 14.37, 14.37, 14.37, 14.37, 14.81, 14.37, 14.58, 14.55, 14.58, 14.58, 13.94, 13.94, 13.94, 13.5, 13.07, 13.07, 12.63, 12.63, 12.2, 12.2, 11.8, 11.8, 11.36, 11.36, 10.93, 11.33, 11.49, 11.58, 11.58, 11.14, 11.14, 11.59, 11.62, 11.62, 11.14, 10.69, 10.14, 9.83, 9.83, 9.39, 8.89, 8.73, 8.77, 8.91, 8.63, 8.4, 8.8, 8.82, 9.2, 7.9, 8.22, 6.21, 3.53, 2.02, 1.93, -0.0, -1.69, -1.76, -2.1, -4.15, -2.1, -1.84, 1.84, 5.54, 6.87, 7.15, 9.42, 19.66, 22.6, 26.47, -11.41, -16.99, -13.86, -9.48, -4.38, -10.43, -14.75, 14.75, 6.4, 3.47, 6.4, 6.4, 6.4, 11.68, 11.68, 11.68, 11.68, 11.96, 12.39, 12.82, 13.25, 13.5, 13.5, 13.5, 13.94, 14.37, 14.37, 14.31, 14.31, 14.31, 14.31, 14.37, 14.81, 14.81, 14.55, 14.55, 14.37, 13.94, 13.94, 13.94, 13.5, 13.5, 13.07, 13.07, 12.63, 12.63, 12.2, 12.2, 11.76, 11.8, 11.51, 11.36, 10.93, 10.89, 11.49, 11.46, 11.14, 11.14, 10.7, 10.73, 10.73, 10.73, 10.73, 10.69, 10.25, 9.83, 9.83, 9.83, 9.33, 8.73, 8.73, 8.67, 8.63, 8.4, 8.4, 9.33, 8.82, 8.94, 6.97, 5.98, 3.53, 2.6, -0.0, -3.65, -4.6, -5.7, -2.6, -4.8, -6.17, -4.15, -0.0, 5.0, 6.2, 7.44, 9.16, 16.75, 22.97, 25.68, 9.6, -15.65, -12.45, -13.15, -14.11, -13.7, -4.66, -0.0, 3.58, 2.81, 5.31, 5.31, 5.31, 11.68, 11.68, 11.68, 11.68, 11.96, 11.96, 12.39, 12.82, 13.01, 13.07, 13.5, 13.94, 13.94, 14.31, 14.31, 14.31, 14.31, 14.31, 14.31, 14.75, 14.99, 14.99, 14.75, 14.37, 13.94, 13.94, 13.88, 13.44, 13.5, 13.07, 12.63, 12.63, 12.2, 12.2, 12.2, 11.76, 11.76, 11.51, 11.06, 10.93, 10.89, 11.05, 11.02, 11.14, 10.69, 10.69, 10.73, 10.73, 10.28, 10.28, 10.28, 10.28, 10.28, 9.83, 9.83, 9.33, 9.33, 8.73, 8.67, 8.22, 8.91, 8.91, 9.33, 9.55, 8.58, 6.71, 5.0, 4.15, -0.0, -2.39, -4.6, -5.7, -7.59, -3.53, -5.0, -6.17, -6.95, -2.49, 3.98, 5.52, 6.98, 11.37, 14.13, 22.12, 26.07, 30.11, 16.54, -12.79, -11.88, -11.52, -10.75, -5.64, -0.0, 2.98, 2.89, 5.31, 5.31, 5.31, 11.68, 11.68, 11.68, 11.68, 12.1, 12.39, 12.39, 12.3, 12.72, 13.01, 13.5, 13.94, 13.94, 14.31, 14.31, 14.31, 14.31, 14.31, 14.31, 14.31, 14.75, 14.75, 14.75, 14.37, 13.94, 13.88, 13.88, 13.44, 13.07, 13.07, 12.63, 12.2, 12.2, 12.2, 11.76, 11.76, 11.76, 11.49, 11.51, 10.93, 10.93, 10.89, 11.02, 11.14, 10.69, 10.69, 10.69, 10.28, 10.28, 10.28, 10.28, 10.28, 10.28, 9.83, 9.83, 9.77, 9.33, 8.89, 8.67, 8.6, 8.6, 9.26, 9.7, 9.55, 9.2, 7.59, 4.8, 2.1, -0.0, -0.0, -3.25, -7.59, -7.59, -7.9, -5.95, -4.6, -5.46, -5.46, -0.0, 5.95, 9.58, 11.09, 13.8, 18.61, 24.31, 30.56, 27.72, -14.79, -14.31, -6.8, -2.5, -2.15, -0.0, 4.95, 4.66, 4.66, 4.66, 4.66, 11.68, 11.68, 11.68, 11.68, 12.1, 12.39, 12.3, 12.72, 12.72, 13.01, 13.5, 13.5, 13.94, 14.31, 14.31, 14.31, 14.31, 14.31, 14.31, 14.75, 14.75, 14.75, 14.81, 14.37, 13.88, 13.88, 13.44, 13.44, 13.01, 12.63, 12.63, 12.2, 12.2, 11.76, 11.76, 11.76, 11.33, 11.33, 11.33, 10.93, 10.93, 10.89, 11.02, 10.69, 10.68, 10.68, 10.69, 10.25, 10.28, 10.28, 10.28, 9.8, 10.28, 9.83, 9.83, 9.77, 9.33, 9.32, 8.6, 8.17, 8.85, 8.85, 9.26, 9.64, 8.18, 6.95, 5.7, 2.49, -0.0, -0.0, -7.59, -7.59, -9.6, -9.3, -8.93, -5.7, -6.95, -8.4, -0.0, 7.59, 10.0, 11.51, 13.79, 16.99, 21.9, 24.59, 25.48, 21.74, 13.99, 4.95, -0.0, -0.0, 1.94, 6.16, 5.99, 7.32, 7.32, 7.32, 11.68, 11.68, 11.68, 11.68, 12.1, 12.3, 12.3, 12.72, 12.72, 12.72, 13.44, 13.44, 13.88, 13.88, 14.31, 13.88, 13.88, 14.31, 14.31, 14.31, 14.75, 14.75, 14.75, 14.75, 13.88, 13.44, 13.44, 13.44, 13.01, 12.58, 12.63, 12.2, 12.2, 11.76, 11.76, 11.76, 11.76, 11.33, 11.33, 10.93, 10.89, 10.89, 10.58, 10.56, 10.68, 10.68, 10.24, 10.25, 10.25, 10.24, 10.24, 9.79, 9.79, 9.83, 9.83, 9.39, 9.33, 9.32, 9.29, 8.85, 8.49, 8.49, 8.82, 8.67, 8.91, 6.64, 4.4, 3.11, 3.11, -0.0, -4.4, -9.6, -10.18, -9.75, -9.75, -9.2, -9.2, -6.95, -0.0, 9.6, 10.84, 11.51, 13.41, 16.54, 20.56, 22.35, 22.8, 21.01, 19.67, 16.31, 8.28, 1.94, 1.73, 5.09, 7.0, 8.29, 8.29, 8.29, 11.68, 11.68, 11.68, 11.68, 11.55, 11.97, 12.3, 12.3, 12.72, 12.72, 13.44, 13.44, 13.88, 13.88, 13.88, 13.88, 13.88, 13.88, 14.31, 14.31, 14.31, 14.75, 14.75, 14.31, 13.88, 13.44, 13.44, 13.01, 13.01, 12.58, 12.58, 12.14, 11.71, 11.71, 11.76, 11.71, 11.71, 11.33, 11.33, 11.33, 10.89, 10.89, 10.84, 10.56, 10.68, 10.68, 10.24, 10.24, 10.24, 10.24, 9.79, 9.79, 9.79, 9.83, 9.83, 9.39, 9.39, 8.94, 9.29, 8.94, 8.94, 8.49, 8.33, 8.67, 8.67, 8.4, 6.64, 6.64, 6.64, -0.0, -0.0, -7.9, -10.0, -10.6, -9.33, -9.75, -9.2, -0.0, 7.27, 9.6, 10.84, 12.07, 13.41, 16.09, 20.09, 21.81, 20.46, 19.96, 18.59, 18.41, 14.18, 5.23, 2.05, 5.81, 8.77, 10.18, 10.18, 10.18, 11.68, 11.68, 12.1, 12.1, 11.97, 11.97, 12.3, 12.3, 12.3, 12.72, 12.72, 13.44, 13.88, 13.88, 13.88, 13.88, 13.88, 13.88, 13.88, 14.31, 14.31, 14.31, 14.31, 14.31, 13.88, 13.44, 13.44, 13.01, 13.01, 12.58, 12.58, 12.14, 11.71, 11.71, 11.71, 11.28, 11.28, 11.28, 11.33, 10.89, 10.89, 10.89, 10.84, 10.56, 10.56, 10.56, 10.56, 10.12, 10.12, 10.12, 9.68, 9.68, 9.79, 9.83, 9.39, 9.39, 9.39, 8.94, 8.94, 8.94, 8.94, 8.49, 8.49, 8.49, 8.94, 8.94, 8.94, 9.39, 9.39, -0.0, -0.0, -0.0, -4.4, -10.4, -9.75, -8.55, -7.27, -0.0, 4.6, 7.59, 10.0, 11.51, 12.88, 15.15, 19.07, 20.64, 20.0, 19.38, 19.01, 18.11, 15.19, 8.74, 5.37, 6.31, 8.51, 11.06, 11.06, 11.06, 11.68, 11.68, 12.1, 12.1, 11.97, 11.97, 12.3, 12.3, 12.3, 12.72, 12.72, 13.44, 13.88, 13.88, 13.88, 13.88, 13.88, 13.88, 13.88, 14.31, 14.31, 14.31, 14.31, 14.31, 13.88, 13.44, 13.44, 13.01, 13.01, 12.58, 12.58, 12.14, 11.71, 11.71, 11.71, 11.28, 11.28, 11.28, 11.33, 10.89, 10.89, 10.89, 10.84, 10.56, 10.56, 10.56, 10.56, 10.12, 10.12, 10.12, 9.68, 9.68, 9.79, 9.83, 9.39, 9.39, 9.39, 8.94, 8.94, 8.94, 8.94, 8.49, 8.49, 8.49, 8.94, 8.94, 8.94, 9.39, 9.39, -0.0, -0.0, -0.0, -4.4, -10.4, -9.75, -8.55, -0.0, -0.0, 4.6, 7.59, 10.0, 10.6, 11.78, 14.07, 16.66, 19.2, 19.77, 18.99, 19.08, 18.1, 16.6, 14.95, 10.73, 12.64, 13.76, 13.99, 13.99, 13.99]}, {"header": {"dx": 0.06612293990616946, "dy": 0.0552356325346848, "nx": 98, "ny": 59, "la1": 35.046912555036876, "la2": 31.78801023549047, "lo1": -121.43107172385933, "lo2": -114.95102361305473, "refTime": "2026041212", "parameterCategory": 1, "parameterNumber": 3}, "data": [0.0, 0.0, -1.13, -1.13, -1.23, -1.23, -1.34, -1.23, -1.23, -1.13, -0.99, -1.64, -1.38, -1.84, -2.02, -1.76, -1.33, 0.0, 4.8, 7.59, 9.3, 10.4, 9.6, 9.6, 8.58, 8.73, 8.38, 9.2, 9.58, 10.38, 10.38, 10.38, 10.52, 8.49, -0.0, 0.0, 0.0, 0.0, 0.0, 7.2, 8.33, 9.64, 10.4, 9.17, 7.36, 7.0, 7.08, 6.97, 8.2, 7.2, 7.19, 7.78, 8.44, 8.44, 8.31, 7.44, 6.9, 6.42, 6.42, 5.55, 4.98, 6.0, 9.17, 11.6, 11.6, 9.48, 8.05, 5.63, 5.48, 5.35, 4.12, 2.89, 1.33, 1.2, 1.25, 1.38, 3.04, 9.48, -0.0, -3.04, -2.49, -4.8, -4.8, -4.6, -6.17, -6.42, -8.58, -10.0, -11.62, -9.66, -9.27, -8.85, -8.85, -8.44, -7.78, -9.17, 0.0, 13.41, 0.0, 0.0, -1.13, -1.13, -1.23, -1.23, -1.38, -1.38, -1.23, -1.13, -0.96, -1.43, -1.64, 0.0, -1.91, -1.84, -1.14, 0.0, 4.8, 8.82, 11.71, 11.84, 11.21, 10.4, 9.2, 8.58, 8.23, 9.2, 9.96, 11.02, 11.51, 11.61, 11.03, 7.37, -0.0, -0.0, 0.0, 0.0, 0.0, 6.32, 9.64, 11.28, 9.17, 8.94, 6.52, 5.65, 7.3, 6.97, 6.31, 5.45, 7.54, 8.3, 7.54, 7.78, 8.05, 7.34, 6.51, 6.0, 5.55, 5.55, 5.45, 9.17, 11.6, 12.04, 11.12, 8.1, 6.65, 4.87, 4.81, 4.62, 3.24, 1.78, 0.0, 0.0, 0.0, 1.83, 5.6, 9.48, -0.0, -3.04, -2.49, -4.8, -4.8, -4.6, -6.17, -6.42, -8.58, -10.0, -11.62, -9.66, -9.27, -8.85, -8.85, -8.44, -7.78, -9.17, 0.0, 13.41, 0.0, 0.0, -1.05, -1.13, -1.13, -1.23, -1.38, -1.38, -1.26, -1.1, -0.89, -0.73, -1.44, 0.0, 0.0, -1.76, -1.39, 1.39, 6.98, 11.2, 11.02, 11.62, 11.4, 11.21, 10.73, 8.03, 6.95, 7.87, 9.83, 10.73, 12.07, 12.44, 11.84, 8.3, 6.36, 8.49, 7.2, 4.0, 2.97, 9.2, 11.46, 11.88, 10.05, 7.04, 4.77, 4.36, 4.36, 4.45, 3.25, 5.11, 5.8, 7.44, 7.19, 6.43, 5.6, 6.0, 5.45, 6.0, 4.58, 4.98, 6.65, 11.12, 12.3, 11.6, 10.12, 7.19, 5.8, 5.63, 7.38, 7.82, 7.4, 5.37, 3.79, 0.0, 0.0, 0.0, 6.94, 10.12, -0.0, -0.0, -0.0, -0.0, -2.19, -2.49, -3.82, -4.6, -5.29, -10.0, -12.07, -10.04, -9.8, -10.86, -10.3, -9.48, -9.17, 0.0, 0.0, 0.0, 0.0, 0.0, 0.0, -1.13, -1.13, -1.23, -1.38, -1.38, -1.23, -1.06, -0.86, -1.52, -1.33, 0.0, 0.0, 0.0, -1.44, 1.71, 8.53, 10.6, 11.02, 10.73, 11.18, 11.03, 9.32, 7.9, 7.27, 6.95, 9.39, 9.2, 10.38, 11.53, 11.57, 10.05, 8.4, 7.81, 8.18, 7.9, 5.2, 13.01, 14.94, 14.66, 9.89, 5.04, 2.47, 2.34, 0.0, 1.98, 4.65, 4.81, 6.44, 5.8, 5.8, 6.21, 6.21, 5.8, 5.27, 4.98, 3.53, 4.24, 9.17, 12.79, 11.87, 10.12, 9.17, 8.44, 8.54, 8.97, 10.43, 11.06, 11.43, 11.66, 9.74, 6.95, 2.93, 0.0, 10.8, 9.48, -0.0, -0.0, -0.0, -0.0, -0.0, -0.0, -0.0, -0.0, -2.82, -11.71, -12.27, -11.28, -11.06, -10.43, -9.48, 0.0, 0.0, 0.0, 0.0, -6.0, 0.0, 0.0, 0.0, -1.13, -1.13, -1.23, -1.26, -1.26, -1.23, -1.06, -0.86, -0.76, -1.28, 0.0, 0.0, 0.0, -1.28, 1.71, 9.66, 11.91, 12.52, 11.18, 10.73, 11.62, 9.6, 8.94, 7.9, 7.9, 10.84, 9.54, 7.27, 8.23, 11.46, 10.88, 8.59, 7.9, 7.9, 6.67, 7.0, 18.33, 18.85, 14.51, 9.73, 6.65, 5.8, 4.48, 2.93, 3.04, 3.04, 5.8, 7.78, 6.67, 6.94, 6.21, 6.63, 6.3, 4.81, 3.85, 3.85, 5.28, 11.6, 12.79, 12.72, 11.53, 11.75, 11.69, 11.16, 11.16, 11.28, 11.95, 12.48, 13.59, 13.34, 12.56, 12.39, 2.19, -0.0, -0.0, 3.47, -0.0, -0.0, -0.0, -0.0, -0.0, -0.0, -2.37, -11.2, -12.58, -11.5, -12.02, -9.12, -6.2, 0.0, 9.17, 0.0, 0.0, -4.24, -7.44, 0.0, 0.0, 0.0, -1.13, -1.13, -1.23, -1.26, -1.23, -1.23, -1.06, -0.86, -0.73, -1.23, 0.0, 0.0, 0.0, 0.0, 1.98, 10.8, 12.52, 12.27, 11.84, 13.41, 12.96, 11.45, 9.66, 8.22, 8.94, 10.38, 10.96, 9.39, 5.21, 6.95, 8.53, 6.9, 8.59, 7.54, 6.2, 7.8, 17.81, 16.09, 13.28, 9.5, 8.85, 8.85, 8.85, 6.44, 5.6, 6.94, 5.6, 7.54, 6.94, 6.94, 6.21, 4.55, 3.73, 3.73, 2.54, 2.91, 4.98, 12.58, 12.52, 12.72, 13.07, 14.03, 13.99, 12.56, 11.42, 10.73, 10.65, 10.27, 10.76, 11.61, 11.27, 13.28, 11.06, -0.0, -0.0, 2.37, -0.0, -0.0, -0.0, -0.0, -0.0, -2.28, -8.53, -12.14, -11.44, -12.22, -10.75, -10.12, 0.0, 0.0, -0.0, -0.0, -9.17, -9.48, -9.48, 0.0, 0.0, 0.0, 0.0, -1.13, -1.23, -1.23, -1.23, -1.19, -1.06, -0.86, -0.7, 0.0, 0.0, 0.0, 0.0, 0.0, 2.06, 10.01, 12.52, 9.17, 6.4, 8.18, 14.84, 14.42, 10.43, 10.75, 12.79, 12.04, 8.93, 9.6, 8.91, 9.83, 6.95, 8.22, 11.88, 10.12, 7.69, 7.69, 13.41, 14.3, 12.58, 11.5, 10.47, 11.33, 8.54, 9.17, 8.85, 7.24, 7.51, 8.85, 6.21, 4.93, 3.04, 1.38, 0.0, 0.0, 0.0, 0.0, 7.19, 12.52, 12.52, 13.15, 14.13, 14.7, 14.29, 12.87, 10.75, 9.5, 8.2, 6.1, 5.64, 5.98, 4.88, 6.31, 6.31, -0.0, 2.45, 2.37, -0.0, -1.98, -3.68, -4.32, -5.0, -9.3, -12.07, -13.88, -12.52, -11.06, -12.39, -12.52, 0.0, -0.0, -0.0, -12.52, -9.17, -10.73, -11.99, 0.0, 0.0, 0.0, 0.0, 0.0, -1.23, -1.23, -1.23, -1.19, -1.03, -0.8, -0.7, 0.0, 0.0, 0.0, -2.19, 0.0, 0.0, 7.78, 12.72, 9.48, 3.25, -0.0, -0.0, 0.0, 0.0, 11.06, 15.61, 14.47, 10.73, 10.8, 11.71, 12.14, 10.41, 9.58, 11.2, 7.78, 4.4, 5.98, 9.67, 12.96, 13.15, 13.39, 12.01, 11.38, 10.12, 9.88, 10.59, 10.59, 10.3, 8.22, 2.37, 1.77, 0.0, 0.0, -1.55, -3.04, -2.45, 0.0, 12.52, 12.96, 12.71, 13.67, 13.88, 13.59, 12.87, 10.69, 7.6, 3.3, 0.0, 0.0, 0.0, -1.89, -1.94, 0.0, 0.0, 0.0, 13.86, 8.85, -0.0, -8.68, -6.21, -6.71, -8.22, -10.04, -13.41, -13.57, -10.43, -12.39, -12.07, -0.0, 5.6, 6.0, -0.0, -13.41, -10.73, -9.48, -11.99, 0.0, 0.0, 0.0, -1.1, -1.13, -1.23, -1.23, -1.23, -1.19, -1.97, -1.64, -1.64, -2.13, -1.61, -1.55, 0.0, 0.0, 0.0, 2.63, 7.44, 13.41, 9.48, 4.38, -0.0, 0.0, 0.0, 8.8, 13.86, 13.99, 11.44, 13.15, 15.2, 14.42, 11.53, 10.01, 6.45, 0.0, 0.0, 3.25, 7.27, 12.3, 13.99, 12.27, 8.85, 6.97, 10.0, 11.72, 11.75, 11.76, 10.73, 9.48, 7.24, 2.37, 0.0, -1.71, -4.58, -7.26, -8.22, -8.22, 13.41, 13.67, 13.09, 12.83, 13.32, 11.9, 9.73, 6.72, 2.88, -3.39, -5.99, -6.6, -6.6, -6.8, -6.6, -7.1, -4.52, -2.89, 0.0, 0.0, 0.0, -11.7, -8.58, -6.44, -6.45, -10.4, -12.07, 0.0, 0.0, 0.0, -11.62, 0.0, 11.87, 8.85, -9.8, -11.53, -9.8, -9.8, -12.72, 0.0, -1.06, -1.1, -1.1, -1.13, -1.23, -1.23, -2.43, -2.35, -1.97, -1.77, -1.83, -2.37, -2.81, -1.72, -1.9, -2.35, -2.43, 0.0, 7.44, 12.3, 12.96, 13.86, 10.12, 0.0, 8.22, 8.4, 10.18, 12.27, 10.12, 13.99, 16.54, 0.0, 0.0, 8.53, 3.53, 0.0, 6.64, 10.4, 12.3, 12.58, 11.6, 8.22, 5.29, 8.03, 10.46, 11.03, 9.66, 9.69, 9.97, 10.48, 10.99, 10.91, 9.17, 7.24, 5.2, 0.0, -11.62, -11.62, 13.41, 14.26, 13.99, 14.4, 12.66, 12.13, 9.73, 6.54, 4.75, -3.93, -11.28, -11.28, -10.18, -8.58, -8.57, -8.94, -8.58, -8.43, -7.93, -3.96, -4.81, 0.0, 0.0, -13.41, 0.0, 0.0, 4.4, 4.6, 4.6, 0.0, -11.18, 0.0, 12.07, 11.6, 0.0, -9.8, -8.31, -9.8, -12.72, 0.0, -1.06, -1.1, -1.13, -1.23, -1.23, -2.43, -2.43, -2.35, -2.04, -1.83, -1.83, -2.72, -2.72, -3.1, -3.47, -4.3, -3.79, -1.42, 5.96, 14.51, 16.54, 15.19, 14.75, 0.0, 0.0, 7.27, 9.2, 9.17, 7.69, 11.6, 12.96, 0.0, 0.0, 0.0, 5.4, 9.67, 11.62, 11.71, 12.87, 12.79, 11.16, 8.22, 9.3, 10.41, 9.89, 9.2, 8.73, 7.9, 9.48, 11.92, 13.49, 14.15, 14.75, 14.47, 14.94, 14.61, 12.72, -0.0, 12.86, 13.83, 14.5, 13.75, 13.62, 13.59, 13.38, 13.9, 14.91, 13.42, -5.8, -10.41, -11.12, -11.64, -11.9, -11.09, -12.39, -14.3, -12.96, -12.52, -11.99, 0.0, 7.2, 7.82, 2.54, 4.32, 3.98, 3.82, 2.1, 0.0, -11.18, 0.0, 0.0, 12.52, 0.0, 0.0, -3.25, -7.44, -12.96, -1.06, -1.06, -1.1, -1.13, -1.23, -2.43, -2.43, -2.43, -2.35, -2.04, -1.9, -1.83, -2.89, -2.64, -2.47, -3.04, -2.45, -3.8, -3.62, 0.0, 7.4, 11.38, 7.0, 0.0, 0.0, 0.0, 0.0, 1.95, 0.0, 0.0, 4.8, 8.22, 0.0, 0.0, 0.0, 7.27, 9.2, 11.71, 10.41, 10.73, 12.39, 11.99, 8.53, 10.6, 10.28, 9.21, 10.52, 9.6, 10.96, 11.06, 11.96, 13.21, 15.01, 16.02, 16.01, 16.36, 15.61, 13.03, 11.6, 12.96, 14.3, 14.5, 14.18, 14.1, 14.53, 15.91, 17.59, 17.83, 18.16, 16.44, 13.74, 10.12, 0.0, -12.58, -12.96, -13.86, -9.8, -11.99, -12.52, -13.41, 0.0, 9.48, 6.44, 6.6, 6.21, 6.43, 4.58, 1.69, 0.0, -10.73, -0.0, -0.0, -0.0, 0.0, 0.0, 0.0, -12.52, -11.2, -1.06, -1.06, -1.1, -1.23, -2.43, -2.43, -2.43, -2.35, -2.35, -2.11, -1.96, -3.0, -2.89, -2.8, -2.72, -2.64, -2.49, -3.25, -3.34, -1.11, 1.9, 4.24, 0.0, 0.0, 0.0, 0.0, 0.0, 0.0, 0.0, 0.0, 0.0, 0.0, 0.0, 0.0, 7.27, 9.83, 9.2, 10.0, 11.03, 10.8, 11.2, 11.62, 11.84, 10.28, 9.83, 9.83, 10.28, 10.73, 11.18, 11.18, 10.69, 11.18, 12.07, 12.52, 14.3, 15.57, 14.13, 12.65, 9.67, 11.62, 13.86, 12.96, 13.44, 13.38, 13.86, 15.65, 18.76, 20.8, 21.18, 22.22, 18.31, 13.96, 10.75, 7.51, -8.53, -13.86, -13.86, 0.0, 0.0, -8.85, -5.2, 0.0, 2.06, 1.9, 6.43, 7.58, 5.81, 3.04, 2.1, 0.0, 0.0, -0.0, -0.0, 0.0, -12.07, -12.07, -8.53, -6.7, -1.06, -1.06, -1.06, -2.35, -2.43, -2.35, -2.35, -2.56, -2.35, -2.18, -3.0, -3.0, -2.89, -2.8, -2.8, -2.8, -2.8, -2.8, -3.58, -2.02, 0.0, 2.81, 0.0, 0.0, 0.0, 0.0, 0.0, 0.0, 0.0, 0.0, 0.0, 0.0, 0.0, 4.8, 7.27, 6.95, 8.4, 9.2, 9.75, 10.18, 11.28, 11.18, 11.18, 11.18, 9.83, 9.83, 8.49, 9.83, 10.73, 10.73, 10.73, 10.73, 13.15, 13.59, 12.96, 12.07, 11.21, 10.12, 11.29, 11.18, 12.96, 13.09, 13.34, 13.86, 13.41, 14.75, 16.54, 17.84, 18.41, 15.83, 17.01, 12.15, 8.4, 4.64, 0.0, 0.0, 8.68, 9.49, 7.32, 4.66, -13.41, -11.2, -4.65, -3.93, 1.77, 2.91, 3.76, 2.72, 3.07, 3.39, 4.4, -0.0, -0.0, -0.0, -5.95, -8.22, -5.2, -2.82, -1.06, -1.06, -1.06, -2.35, -2.35, -2.35, -2.35, -2.35, -2.35, -3.22, -3.22, -3.09, -2.89, -2.8, -2.97, -2.87, -2.87, -3.05, -3.9, -3.28, 0.0, 0.0, 0.0, 0.0, 0.0, 0.0, 0.0, 0.0, 0.0, 0.0, 0.0, 0.0, 0.0, 0.0, 0.0, 6.95, 9.2, 8.4, 10.0, 9.2, 10.18, 11.62, 10.73, 10.73, 9.39, 9.39, 9.39, 9.11, 8.67, 9.83, 10.28, 10.28, 9.83, 7.6, 8.94, 8.94, 8.18, 7.06, 10.41, 12.44, 11.62, 11.62, 12.07, 12.0, 11.98, 12.96, 13.86, 13.28, 11.5, 11.87, 11.7, 9.69, 4.05, 0.0, 0.0, 11.06, 12.7, 11.06, 9.39, 7.0, 4.18, 0.0, -3.04, -8.85, -11.21, -2.28, 0.0, 2.63, 3.82, 4.24, 4.15, 0.0, -0.0, -0.0, -2.71, -2.82, -0.0, -0.0, -1.06, -1.06, -1.06, -2.35, -2.35, -2.35, -2.35, -2.35, -2.35, -3.47, -3.32, -3.09, -2.89, -2.98, -2.88, -2.8, -3.05, -3.13, -3.13, -3.24, -1.46, 0.0, 0.0, 0.0, 0.0, 0.0, 0.0, 0.0, -2.21, 0.0, 0.0, 0.0, 0.0, 0.0, 0.0, 2.83, 5.46, 5.46, 5.0, 7.59, 9.75, 10.73, 10.73, 9.83, 9.39, 9.39, 8.91, 8.48, 8.48, 7.6, 8.48, 8.94, 8.94, 8.94, 8.49, 7.6, 7.07, 9.13, 11.18, 11.51, 10.28, 10.73, 10.18, 9.6, 9.55, 10.96, 10.28, 12.71, 11.88, 10.12, 6.4, 1.21, -1.17, -1.5, 10.61, 13.74, 12.4, 10.34, 8.99, 8.05, 7.98, 7.2, 4.66, 0.0, -11.62, -11.18, -6.67, 0.0, 0.0, 2.13, 2.06, -0.0, -0.0, -0.0, -4.8, -0.0, -0.0, -0.0, -1.06, -1.06, -1.1, -2.28, -2.28, -2.35, -2.35, -2.43, -2.35, -3.47, -3.32, -3.09, -2.98, -2.98, -2.88, -2.88, -1.94, -1.93, -2.95, -3.13, -1.37, 0.0, 0.0, 0.0, 0.0, 0.0, 0.0, -2.65, -2.28, -2.05, 0.0, 0.0, 0.0, 0.0, 0.0, 2.17, 2.28, 3.39, 4.6, 7.27, 10.73, 8.94, 9.83, 8.49, 9.39, 9.39, 8.91, 8.4, 6.32, 6.32, -0.0, -0.0, 9.39, 9.39, 9.39, 9.39, 9.54, 9.97, 10.0, 10.4, 10.84, 10.28, 8.18, 6.95, 6.95, 7.67, 9.97, 12.52, 11.12, 6.43, 0.0, -3.28, -4.22, 2.4, 14.78, 14.29, 12.56, 11.08, 9.31, 7.93, 8.06, 8.05, 6.94, 5.73, -9.17, -8.22, -11.28, -4.1, 0.0, 0.0, 2.37, 0.0, 0.0, -11.62, -8.22, 0.0, 0.0, 0.0, -2.11, -2.28, -2.35, -2.35, -2.28, -2.28, -2.35, -2.35, -2.43, -3.58, -3.32, -3.18, -3.18, -2.01, -1.89, -1.89, -1.94, -2.0, -1.93, -2.87, -2.13, 0.0, 0.0, 0.0, 0.0, 0.0, 0.0, -2.72, -2.72, -2.47, 0.0, 0.0, 0.0, 0.0, 0.0, 0.0, 1.75, 3.25, 4.8, 7.27, 9.83, 9.39, 8.49, 8.94, 8.94, 9.39, 9.39, 9.39, 9.39, 6.64, -0.0, -0.0, -0.0, 6.95, 9.83, 9.83, 9.83, 9.2, 9.6, 7.9, 10.6, 10.73, 9.2, 8.18, 6.64, 6.64, 8.23, 10.4, 4.8, 0.0, 0.0, 0.0, 1.67, 8.68, 11.7, 12.01, 9.92, 8.68, 7.7, 7.0, 6.6, 5.73, 5.15, 2.54, -12.96, -4.1, -0.0, -0.0, 0.0, 0.0, 6.0, 4.65, 0.0, -3.68, -3.68, -3.53, -5.0, -5.0, -2.11, -2.28, -2.28, -2.35, -2.28, -2.28, -2.35, -2.35, -2.43, -2.43, -3.32, -3.42, -2.21, -2.07, -2.01, -3.04, -1.95, -1.94, -1.94, -1.78, -2.07, 0.0, 0.0, 0.0, 0.0, 0.0, 0.0, 0.0, -4.23, -2.65, 0.0, 0.0, 0.0, 0.0, 0.0, 0.0, 0.0, 1.33, 1.93, 3.53, 3.25, 0.0, 0.0, 9.83, 9.83, 9.83, 9.83, 9.39, 9.39, 9.39, 9.83, 9.83, 9.83, 9.83, 9.83, 10.28, 9.83, 9.6, 10.0, 10.0, 9.6, 10.73, 10.28, 7.44, 6.64, 7.27, 7.27, 10.73, 0.0, 0.0, 0.0, 3.13, 5.12, 5.1, 2.79, 0.0, -1.34, 0.0, 0.92, 2.79, 2.64, 1.77, 0.92, 0.89, 0.0, -9.17, -0.0, 10.4, 0.0, 0.0, 9.8, 8.05, 2.37, -2.82, -2.93, -2.82, -2.82, -2.82, -2.28, -2.28, -2.28, -2.28, -2.28, -2.28, -2.35, -2.35, -2.43, -2.43, -3.32, -3.42, -3.28, -2.07, -2.07, -2.01, -1.83, -1.95, -1.56, -1.51, -1.69, 0.0, 2.65, 0.0, 0.0, 0.0, 0.0, -3.16, -3.33, -3.33, -2.87, 0.0, 0.0, 0.0, 0.0, 0.0, 0.0, 0.0, 0.0, 0.0, 0.0, 0.0, 0.0, 6.64, 8.94, 10.73, 9.83, 9.83, 9.39, 9.39, 9.39, 9.39, 9.39, 9.83, 8.94, 9.39, 9.6, 6.95, 4.6, 7.59, 10.28, 10.28, 9.33, 8.18, 7.51, 6.95, 8.55, 10.73, 2.02, 0.0, 1.11, 2.13, 2.39, 0.0, -4.07, -8.43, -10.3, -9.81, -3.79, -0.95, 0.0, 0.0, 0.0, 0.0, 0.0, 0.0, 4.8, 9.6, 6.45, 3.68, 0.0, 0.0, 0.0, -2.28, -2.93, -2.93, 0.0, 0.0, -2.28, -2.28, -2.28, -2.28, -2.28, -2.28, -2.28, -2.35, -2.43, -2.5, -3.32, -3.42, -3.28, -2.21, -2.07, -1.94, -1.83, -2.72, -2.54, -2.72, -1.88, 0.0, 0.0, 1.78, 0.0, -2.11, -2.28, -2.79, -2.87, -3.51, -2.94, -2.47, 0.0, 0.0, 0.0, 0.0, 0.0, 0.0, 0.0, 0.0, 0.0, 0.0, 0.0, 2.39, 4.2, 10.73, 9.83, 9.83, 9.39, 9.39, 8.94, 9.39, 9.39, 9.83, 10.28, 9.83, 8.55, 8.55, 7.59, 9.83, 9.83, 9.33, 9.54, 8.18, 6.64, 7.27, 11.45, 11.03, 7.9, 4.08, 4.81, 4.18, 4.91, 0.0, -7.4, -11.48, -13.88, -13.36, -10.83, -7.88, -3.28, 0.0, 1.08, 2.18, 1.33, 2.06, 5.4, 6.71, 3.19, 1.84, -2.37, -4.81, -1.77, 0.0, 0.0, 0.0, 2.28, 2.28, -2.28, -2.28, -2.28, -2.48, -2.48, -2.28, -2.28, -2.35, -2.43, -3.69, -3.42, -3.42, -3.18, -3.28, -2.07, -2.07, -1.89, -1.83, -2.72, -3.05, -1.98, -0.97, 0.0, 0.0, 0.0, -1.97, 0.0, 0.0, 0.0, -2.79, -2.87, -2.47, -2.16, 0.0, 0.0, 0.0, 1.73, 0.0, 0.0, 0.0, 0.0, 0.0, 0.0, 0.0, 1.47, 1.95, 7.27, 0.0, 9.39, 8.94, 8.94, 9.39, 8.94, 9.39, 9.83, 10.28, 10.41, 9.6, 10.73, 6.95, 7.44, 9.2, 9.54, 9.11, 9.33, 11.45, 11.87, 11.62, 10.79, 10.73, 11.64, 11.64, 15.4, 12.35, -12.07, -13.67, -15.99, -16.58, -15.38, -12.52, -8.72, -3.69, 0.0, 3.79, 4.81, 4.11, 4.38, 4.24, 0.0, 0.0, -3.19, -5.4, -2.06, 0.0, 2.82, 5.2, 2.28, 2.28, -2.28, -2.28, -2.28, -2.48, -2.48, -2.48, -2.35, -2.35, -2.43, -3.69, -3.42, -3.42, -3.52, -3.28, -2.21, -2.07, -1.89, -1.83, -1.89, -2.05, -1.98, -0.89, 0.0, 0.0, 0.0, 0.0, 0.0, 0.0, 0.0, 0.0, -2.72, -2.34, -2.05, 0.0, 0.0, 0.0, 1.78, 1.63, 0.0, 0.0, 0.0, 0.0, 0.0, 0.0, 1.14, 2.54, 3.11, 0.0, 0.0, 6.01, 8.94, 8.94, 8.94, 8.94, 9.39, 9.83, 10.28, 10.38, 10.6, 6.32, 7.81, 9.2, 10.08, 9.83, 9.83, 12.14, 12.3, 10.6, 10.84, 11.06, 12.52, 12.56, 10.0, 4.12, -7.9, -9.76, -13.88, -15.58, -16.19, -16.19, -13.34, -8.57, -1.73, 0.0, 2.65, 3.69, 3.88, 1.63, 0.0, 1.33, -1.77, -3.82, 0.0, 2.37, 4.32, 1.91, 1.64, 1.64, -3.36, -3.36, -2.28, -2.28, -3.65, -3.65, -3.65, -3.47, -3.58, -3.69, -3.42, -3.52, -3.52, -3.28, -3.28, -2.07, -2.07, -1.83, -0.98, -1.0, -1.03, -1.0, -0.95, 0.0, 0.0, 0.0, 0.0, 0.0, 2.16, 2.4, 0.0, 0.0, 0.0, 0.0, 0.0, 0.0, 0.0, 0.0, 0.0, 0.0, 0.0, 0.0, 0.0, 0.0, 1.11, 1.14, 2.39, 2.97, 2.83, 2.83, 4.0, 7.6, 7.6, 8.94, 8.94, 9.39, 8.49, 9.26, 10.0, 9.6, 7.07, 7.44, 8.91, 9.39, 9.33, 13.86, 12.96, 9.17, 7.59, 6.95, 9.75, 1.63, 4.65, 6.73, 6.75, -15.19, -15.2, -13.44, -13.99, -15.34, -15.68, -13.07, -8.05, -4.11, -1.3, 0.0, 0.0, 0.0, 1.72, 6.4, 4.1, 4.48, 0.0, 0.0, 0.0, 0.0, 0.0, 0.0, -3.36, -3.36, -3.36, -3.36, -3.36, -3.65, -3.65, -3.47, -3.58, -3.69, -3.42, -3.42, -3.52, -3.28, -3.28, -2.21, -2.07, -2.01, -1.01, -1.0, -1.0, -1.06, 0.0, 0.0, 0.0, -0.92, 0.0, 0.0, 1.93, 2.4, 2.4, 0.0, 0.0, 0.0, 0.0, 0.0, 0.0, 0.0, 0.0, 0.0, 0.0, 0.0, 0.0, 1.14, 1.09, 1.16, 2.06, 2.06, 2.17, 2.28, 3.14, 2.49, 6.01, 8.0, 8.0, 8.94, 8.94, 7.6, 7.44, 6.95, 9.33, 8.49, 8.94, 9.39, 11.18, 0.0, 8.85, 11.2, 10.6, 10.28, 0.0, 1.29, 4.55, 10.91, 10.0, 8.1, -3.77, -16.12, -14.31, -11.88, -14.71, -14.95, -13.29, -9.33, -5.45, -2.81, -1.43, 0.0, 4.24, 9.16, 8.43, 6.0, 1.55, 0.0, -2.82, -2.19, 0.0, 0.0, -3.36, -3.36, -3.36, -3.36, -3.36, -3.65, -3.65, -3.47, -3.58, -3.58, -3.69, -3.42, -3.52, -3.52, -3.28, -2.21, -2.21, -2.07, -2.07, -1.04, -0.98, -1.0, 0.0, 0.0, 0.0, 0.0, 0.0, 0.0, 0.0, 1.93, 2.4, 2.11, 0.0, 0.0, 0.0, 0.0, 0.0, 0.0, 0.0, 0.0, 0.0, 0.0, 0.98, 0.98, 1.14, 1.14, 1.09, 1.94, 3.14, 2.97, 2.97, 3.3, 2.39, 5.46, 6.32, 8.48, 8.49, 8.05, 8.48, 8.77, 9.13, 9.2, 8.0, 8.4, 7.27, 0.0, 10.8, 12.27, 9.96, 6.17, 1.76, 2.13, 5.3, 9.83, 13.21, 12.82, 10.3, -13.28, -16.09, -12.52, -13.41, -15.15, -14.11, -11.44, -8.3, -4.38, -1.9, 0.0, 2.2, 5.15, 4.81, 5.81, 3.68, 1.43, -2.71, -5.0, 0.0, 0.0, -3.36, -3.36, -3.36, -3.36, -3.36, -3.36, -3.65, -3.36, -3.47, -3.58, -3.69, -3.42, -3.52, -3.42, -3.28, -2.21, -2.21, -2.07, -2.07, -2.07, -1.04, -1.04, 0.0, 0.0, 0.0, 0.0, 0.0, 0.0, 0.0, 0.0, 1.88, 2.11, 4.67, 1.88, 0.0, 0.0, 0.0, 0.0, 0.0, 0.0, 0.0, 0.0, 0.0, 0.98, 1.02, 1.02, 1.14, 1.04, 2.17, 2.17, 2.97, 3.11, 2.39, 3.87, 5.9, 7.6, 8.06, 7.2, 7.6, 8.49, 9.21, 7.21, 7.59, 4.96, 9.6, 10.28, 11.46, 10.73, 8.82, 5.7, 4.4, 2.82, 2.48, 6.26, 11.12, 14.44, 11.46, 4.88, -16.09, -11.62, -12.52, -14.75, -14.22, -12.46, -10.41, -8.59, -5.63, -2.02, 0.0, 2.72, 2.72, 1.89, 4.34, 3.65, 4.1, 0.0, 0.0, 0.0, -3.12, -3.12, -3.36, -3.36, -3.36, -3.36, -3.36, -3.36, -3.47, -3.47, -3.58, -3.69, -3.42, -3.42, -3.42, -3.18, -2.21, -2.21, -2.07, -2.07, -1.04, -1.04, -1.04, 0.0, 0.0, 0.0, 0.0, 0.0, 0.0, 0.0, 0.0, 1.5, 4.12, 2.11, 1.88, 0.0, 0.0, 0.0, 0.0, 0.0, 0.0, 0.0, 0.0, 0.0, 0.0, 0.0, 1.14, 1.09, 2.28, 2.28, 2.04, 2.13, 2.23, 2.49, 5.95, 7.87, 7.44, 8.06, 8.05, 8.94, 8.3, 5.59, 6.14, 7.33, 8.91, 11.02, 11.18, 10.28, 4.4, 3.25, 2.71, 0.0, 0.0, 0.0, 2.65, 3.59, 2.47, 4.4, -3.16, -12.96, -10.41, -13.7, -14.66, -13.28, -11.61, -10.87, -8.59, -5.31, 0.0, 0.0, 0.0, 0.0, 2.88, 4.21, 5.73, 5.11, 3.96, 3.96, -3.12, -3.12, -3.12, -3.36, -3.36, -3.36, -3.36, -3.47, -3.47, -3.47, -3.58, -3.69, -3.52, -3.52, -3.52, -3.42, -3.18, -2.15, -2.15, -2.01, -2.07, -1.04, -1.04, -1.04, 0.0, 0.0, 0.0, 0.0, 0.0, 0.0, 0.0, 1.18, 1.5, 3.59, 1.83, 0.0, 0.0, 0.0, 0.0, 0.0, 0.0, 0.0, 0.0, 0.0, 0.0, 1.09, 1.18, 2.52, 3.68, 2.28, 2.13, 2.13, 2.13, 2.49, 4.23, 6.7, 7.59, 9.2, 9.39, 9.39, 7.15, 5.59, 8.4, 8.63, 9.63, 11.98, 11.03, 10.28, -9.83, -3.25, 1.39, 2.72, 0.0, -3.56, -6.4, -5.56, -4.55, 0.0, 2.33, 0.0, -8.68, -11.99, -12.89, -12.42, -12.71, -12.71, -12.58, -12.39, -7.93, 0.0, 2.81, 5.48, 5.99, 5.19, 6.1, 6.64, 5.36, 5.36, -3.12, -3.12, -3.12, -3.36, -3.36, -3.36, -3.36, -3.47, -3.47, -3.47, -3.47, -3.69, -3.69, -3.52, -3.62, -3.52, -3.42, -2.15, -2.15, -2.15, -2.07, -1.04, -1.04, -1.04, -1.04, -1.04, 0.0, 0.0, 0.0, 0.0, 0.0, 0.0, 1.23, 1.6, 3.59, 1.65, 0.0, 0.0, 0.0, 0.0, 0.0, 0.0, 0.0, 0.0, 0.8, 2.7, 3.82, 4.71, 4.24, 3.6, 3.21, 2.7, 2.13, 2.39, 3.61, 5.32, 6.87, 8.73, 9.2, 8.8, 6.32, 7.67, 8.17, 8.91, 9.29, 10.65, 10.6, 9.66, 0.0, -8.8, 5.0, 7.24, 5.73, 1.5, -6.47, -10.73, -9.14, -5.78, 0.0, 1.0, -1.31, -10.07, -9.12, -6.4, -6.2, -10.12, -12.39, -9.8, 0.0, 3.47, 8.94, 8.31, 7.92, 7.0, 7.28, 6.6, 6.57, 6.57, -3.02, -3.02, -3.12, -3.12, -3.12, -3.36, -3.36, -3.47, -3.47, -3.58, -3.58, -3.47, -3.69, -3.42, -3.52, -3.52, -3.52, -3.52, -2.21, -2.21, -2.21, -2.21, -2.21, -1.04, -1.04, -1.04, -1.01, 0.0, 0.0, 0.0, 0.0, 0.0, 0.0, 1.42, 1.6, 1.6, 1.5, 1.37, 0.0, 0.0, 1.18, 1.17, 0.99, 0.89, 0.81, 2.49, 3.14, 5.31, 5.31, 4.58, 3.06, 2.28, 2.47, 2.97, 3.45, 4.6, 6.24, 7.9, 8.73, 7.59, 8.05, 8.91, 8.48, 8.0, 8.94, 9.21, 9.83, 8.8, 7.27, 4.6, 8.18, 7.59, 6.21, 7.17, 3.31, -7.68, -13.62, -11.36, -7.68, -2.93, -1.78, -4.56, -6.44, -2.8, -0.98, -1.0, -0.98, 0.0, 2.72, 5.45, 7.44, 7.69, 7.44, 6.99, 6.37, 6.37, 5.99, 5.99, -3.94, -3.94, -3.94, -3.12, -3.12, -4.08, -4.38, -4.52, -4.52, -4.66, -4.66, -3.58, -3.58, -3.79, -3.52, -3.52, -3.52, -3.62, -2.45, -2.28, -2.28, -2.28, -2.21, -2.21, -1.04, -1.04, -1.01, -1.02, 0.0, 0.0, 0.0, 0.0, 0.0, 0.0, 1.56, 1.6, 1.6, 1.5, 1.37, 1.27, 1.27, 1.2, 0.99, 0.86, 1.56, 1.84, 3.41, 5.04, 4.74, 3.29, 2.49, 2.17, 2.83, 2.83, 2.7, 4.4, 4.6, 6.24, 7.59, 8.49, 9.2, 8.72, 7.07, 7.07, 8.94, 8.24, 7.63, 9.11, 7.27, 6.7, 5.46, 2.02, 2.06, 4.62, 6.5, 2.42, -14.18, -12.52, -11.33, -7.54, -3.51, -2.07, 0.0, 0.0, 0.0, 0.79, 1.54, 2.88, 3.93, 4.99, 7.19, 7.78, 7.44, 6.4, 6.99, 6.18, 5.99, 5.99, -3.94, -3.94, -3.94, -4.08, -4.08, -4.08, -4.38, -4.52, -5.5, -4.66, -4.66, -4.66, -3.58, -3.58, -3.79, -3.52, -3.52, -3.52, -2.38, -2.45, -2.28, -2.28, -2.28, -2.21, -2.15, -1.08, -1.08, -0.95, -0.99, 0.0, 0.0, 0.0, 0.0, 0.0, 0.0, 1.6, 1.6, 1.5, 1.5, 1.37, 0.0, 1.23, 1.1, 0.93, 1.63, 1.91, 3.14, 3.65, 3.65, 3.06, 2.28, 2.17, 2.01, 2.01, 2.47, 2.83, 3.11, 5.45, 6.98, 8.49, 8.73, 7.07, 7.81, 6.7, 8.49, 8.05, 8.05, 8.06, 4.4, 3.98, 3.25, 0.0, -1.64, 0.0, 3.0, 6.7, 0.0, -11.16, -12.86, -9.87, -4.93, -1.18, 5.09, 9.92, 2.79, 0.99, 1.62, 2.14, 3.0, 5.27, 8.85, 8.53, 6.43, 5.63, 4.52, 5.67, 5.5, 5.5, -3.94, -3.94, -3.94, -3.94, -4.08, -4.97, -4.97, -5.5, -6.4, -5.67, -6.1, -6.29, -5.04, -4.66, -3.69, -3.79, -3.79, -3.52, -3.52, -2.45, -2.45, -2.34, -2.28, -2.28, -2.15, -2.15, -1.08, -1.05, -0.98, -0.98, 0.0, 0.0, -1.04, 0.0, 0.0, 1.46, 1.6, 1.6, 1.5, 0.0, 0.0, 0.0, 0.0, 0.99, 1.77, 1.77, 3.04, 3.65, 3.65, 3.18, 2.59, 2.28, 2.28, 2.11, 2.39, 1.76, 3.25, 4.6, 6.69, 8.15, 9.3, 8.18, 7.44, 9.11, 8.49, 8.33, 6.7, 4.46, 2.28, 2.02, 3.87, 5.2, 0.0, 0.0, 0.0, 6.23, 7.53, -8.4, -16.09, -12.35, -8.11, -2.21, 11.7, 15.19, 6.31, 0.0, 0.0, 0.8, 2.48, 7.82, 10.35, 10.41, 7.51, 3.14, 2.72, 4.66, 4.89, 4.89, -4.81, -4.81, -4.81, -4.81, -4.97, -4.97, -4.97, -6.4, -6.6, -7.06, -7.28, -7.28, -6.29, -6.1, -6.6, -3.69, -3.69, -3.69, -3.42, -3.52, -2.45, -2.45, -2.45, -2.28, -2.21, -2.15, -2.15, -2.09, -1.05, -1.01, -1.01, -0.95, -1.01, -1.01, 0.0, 0.0, 1.6, 1.6, 1.65, 0.0, 0.0, 0.0, 0.0, 0.0, 0.93, 1.77, 2.06, 2.4, 2.4, 2.32, 2.82, 2.71, 2.39, 2.39, 2.39, 1.76, 2.02, 4.6, 6.69, 9.3, 8.82, 9.3, 8.4, 9.11, 9.11, 8.48, 5.69, 2.06, 1.47, 5.21, 8.0, 9.67, 7.19, 3.85, 1.2, 4.1, 7.64, 6.91, 0.0, -8.47, -10.75, 0.0, 16.54, 11.7, 5.09, 1.23, 1.15, 4.52, 6.9, 9.17, 10.01, 8.53, 3.96, 2.45, 2.2, 1.96, 4.52, 4.52, -4.81, -4.81, -4.81, -4.81, -4.97, -4.97, -5.14, -6.4, -6.6, -7.92, -8.16, -8.72, -7.82, -8.18, -7.16, -5.64, -3.69, -3.69, -3.69, -3.52, -3.52, -2.45, -2.45, -2.45, -2.21, -2.15, -2.15, -1.05, -2.09, -1.08, -1.01, -1.01, -0.92, -0.98, -1.05, 0.0, 0.0, 1.56, 0.0, 0.0, 0.0, 0.0, 0.0, 0.0, 0.93, 0.97, 1.98, 2.13, 2.4, 2.32, 2.08, 1.84, 1.76, 1.62, 1.62, 1.76, 2.02, 4.6, 6.69, 8.82, 8.53, 8.49, 8.8, 7.89, 8.06, 6.64, 2.54, 0.0, 6.32, 8.67, 10.32, 8.55, 8.73, 4.97, 2.24, 1.3, 4.79, 8.38, 6.64, 2.06, -3.44, 0.0, 14.75, 4.52, 2.72, 5.15, 9.8, 11.99, 9.17, 7.78, 5.8, 5.6, 3.96, 4.1, 2.54, 2.2, 3.81, 3.81, -4.65, -4.65, -4.81, -4.51, -4.66, -4.97, -5.14, -5.14, -5.67, -7.06, -8.72, -9.33, -9.12, -8.06, -7.82, -5.99, -4.0, -3.69, -3.69, -2.57, -2.57, -2.38, -2.45, -2.45, -2.38, -2.15, -2.15, -2.09, -2.09, -2.15, -1.08, -1.01, -0.98, -0.98, -0.98, -1.13, 0.0, 0.0, 0.0, 0.0, 0.0, 0.0, 0.0, 0.0, 0.0, 0.89, 0.97, 1.04, 1.17, 1.17, 1.09, 1.01, 0.93, 0.89, 1.62, 1.76, 2.02, 4.18, 8.15, 8.49, 8.53, 8.53, 8.8, 7.6, 7.07, 5.21, 1.95, 7.07, 8.94, 8.94, 9.11, 8.23, 7.28, 7.2, 6.26, 1.47, 0.0, 0.0, 0.98, 2.61, 2.2, 4.12, 0.0, 0.0, 4.38, 8.31, 11.09, 11.16, 7.44, 6.0, 5.8, 3.04, 3.96, 0.0, 0.0, 0.0, 0.0, 1.9, -4.65, -4.65, -4.51, -4.51, -4.66, -4.66, -5.14, -5.14, -4.34, -4.66, -6.8, -5.64, -8.06, -7.54, -7.54, -5.18, -4.24, -4.0, -3.69, -2.57, -2.57, -2.57, -2.38, -2.45, -2.38, -2.31, -2.09, -2.09, -2.09, -1.05, -1.08, -1.05, -0.98, -0.98, -1.95, -1.05, -1.19, 0.0, 0.0, 0.0, 0.0, 0.0, 0.0, 0.0, 0.0, 0.0, 0.0, 0.0, 0.0, 0.0, 0.0, 0.0, 0.97, 0.89, 1.76, 2.59, 2.71, 3.82, 7.9, 7.9, 7.85, 8.53, 7.59, 7.07, 6.7, 4.96, 7.07, 8.05, 8.49, 8.49, 8.6, 8.82, 7.73, 7.73, 9.42, 7.75, -1.77, -6.66, -6.97, -3.05, 1.22, 6.31, 0.0, 0.0, 9.8, 9.8, 9.8, 9.48, 7.44, 3.14, 3.14, 3.14, 0.0, 0.0, 0.0, -3.04, -2.45, 0.0, -4.65, -4.65, -4.36, -3.68, -3.81, -3.81, -3.93, -3.93, -4.05, -3.09, -2.15, -2.31, -2.98, -4.18, -4.18, -5.18, -4.66, -4.24, -4.0, -3.69, -2.57, -2.57, -2.57, -2.38, -2.38, -2.31, -2.24, -2.09, -1.02, -1.02, -1.05, -1.05, -0.98, -0.98, -1.89, -1.95, -1.1, 0.0, 0.0, 0.0, 0.0, 0.0, 0.0, 0.0, 0.0, 0.0, 0.0, 0.0, 0.0, 0.0, 0.0, 1.2, 1.07, 0.93, 1.76, 2.59, 2.49, 5.21, 6.71, 7.9, 7.85, 7.02, 6.64, 6.64, 7.44, 7.81, 8.33, 8.49, 8.49, 8.82, 8.48, 8.4, 7.26, 8.73, 10.61, 12.87, 10.52, 1.6, -3.04, -7.0, -11.06, 0.0, 0.0, 0.0, 0.0, 9.8, 9.48, 9.48, 4.1, 3.04, 0.0, 0.0, 0.0, -3.04, -3.96, -5.4, -4.48, -2.45, -4.65, -4.65, -4.36, -3.68, -3.68, -3.81, -2.9, -2.81, -2.81, -1.95, -1.95, -0.98, 0.0, 0.0, 0.0, -3.2, -2.89, -4.24, -3.88, -4.0, -2.5, -2.5, -2.5, -2.57, -2.38, -2.38, -2.24, -2.18, -1.02, -1.02, -1.02, -1.05, -1.05, -0.98, -0.95, -1.89, -2.02, -1.15, 0.0, 0.0, 0.0, 0.0, -1.3, -1.13, -1.05, 0.0, 0.0, 0.0, 0.0, 0.0, 1.38, 1.25, 1.07, 0.89, 1.76, 2.39, 2.49, 4.8, 5.95, 6.71, 7.02, 7.73, 8.85, 8.18, 7.81, 7.81, 8.33, 9.39, 8.49, 9.26, 8.91, 8.05, 7.59, 7.26, 9.48, 12.86, 14.6, 15.12, 12.92, 8.8, 0.0, -12.33, -17.59, -13.28, -0.0, 0.0, 0.0, 5.8, 0.0, 0.0, -3.04, -5.6, -5.6, -6.94, -6.94, -8.53, -7.24, -7.24, -4.49, -4.49, -4.65, -3.56, -3.68, -3.68, -2.72, -2.81, -2.81, -1.89, -1.95, -0.98, 0.0, 0.0, 0.0, -1.47, -2.64, -2.64, -2.64, -2.64, -2.72, -2.5, -2.5, -2.5, -2.31, -2.31, -2.24, -2.18, -1.02, -0.99, -0.99, -1.96, -2.02, -0.95, -0.95, -1.83, -1.83, -2.04, 0.0, 0.0, 0.0, 0.0, -1.38, -2.24, -2.16, -2.2, -1.23, 0.0, 0.0, 0.0, 0.0, 1.09, 0.89, 0.85, 0.89, 1.62, 3.67, 4.44, 5.0, 6.2, 6.16, 7.02, 8.22, 7.27, 8.18, 8.4, 9.11, 9.39, 8.49, 9.26, 8.72, 7.67, 7.59, 7.56, 9.77, 9.31, 12.85, 15.12, 16.12, 15.12, 13.92, 12.89, 0.0, -11.41, -0.0, -0.0, 0.0, 0.0, -3.14, -5.8, -6.44, -7.51, -8.85, -10.01, -10.04, -8.53, -8.53, -8.53, -4.49, -4.49, -4.65, -3.56, -3.68, -3.68, -2.9, -2.9, -2.72, -1.89, -1.89, -0.98, 0.0, 0.0, 0.0, -1.23, -2.43, -2.64, -2.64, -2.64, -2.72, -2.72, -2.5, -2.5, -2.31, -2.31, -2.24, -2.18, -2.11, -1.96, -1.9, -1.9, -1.9, -1.96, -0.95, -1.77, -1.77, -1.9, -1.11, 0.0, 0.0, 0.0, -1.33, -2.16, -3.06, -3.14, -2.35, -1.19, -1.11, 0.0, 0.0, 0.0, 0.0, 0.0, 0.82, 0.82, 2.82, 3.98, 5.0, 5.43, 6.16, 7.02, 8.53, 8.53, 8.55, 8.8, 9.11, 9.83, 8.94, 8.77, 8.0, 8.0, 8.4, 7.9, 7.9, 7.51, 6.99, 9.83, 11.42, 15.65, 17.28, 15.25, 13.31, -24.59, -0.0, -0.0, 0.0, -4.1, -7.78, -6.67, -7.51, -7.51, -8.53, -8.85, -8.53, 0.0, 0.0, 0.0, -4.49, -4.49, -4.65, -3.81, -3.68, -3.68, -3.81, -2.9, -3.0, -2.02, -2.02, -1.05, -1.05, -1.05, -1.13, -1.13, -2.43, -2.43, -2.43, -2.43, -2.5, -2.5, -2.5, -2.5, -2.5, -1.17, -2.24, -2.18, -2.11, -2.04, -1.9, -1.9, -1.9, -1.9, -1.9, -1.77, -1.71, -1.77, -2.04, -1.21, 0.0, 0.0, -1.29, -2.08, -2.0, -3.18, -3.53, -2.4, -2.2, -1.0, -1.01, 0.0, 0.0, 0.0, 0.89, 1.84, 2.95, 3.98, 5.0, 5.0, 5.92, 7.44, 8.53, 8.93, 10.8, 8.8, 8.67, 8.94, 9.39, 8.91, 8.91, 8.3, 8.91, 7.27, 5.95, 4.08, 4.58, 4.96, 9.05, 12.57, 16.2, 17.44, 15.63, 8.34, -0.0, -0.0, 0.0, -5.8, -9.17, -8.85, -9.17, -8.53, -8.85, 0.0, 0.0, 11.62, 11.62, 11.62, -4.49, -4.49, -4.65, -3.81, -3.81, -3.94, -3.68, -2.9, -3.0, -3.0, -2.02, -2.02, -2.09, -2.09, -2.24, -2.24, -2.24, -2.24, -2.24, -2.43, -1.23, -1.26, -2.5, -2.5, -2.5, -2.31, -2.24, -2.18, -2.11, -2.11, -1.9, -1.83, -1.83, -1.83, -1.83, -1.71, -1.71, -1.71, -1.9, -2.13, -1.29, 0.0, 0.0, -1.16, -1.01, -2.16, -2.32, -2.32, -2.32, -1.98, -2.0, -0.89, 0.0, 0.0, 0.89, 1.93, 2.23, 3.08, 5.0, 5.0, 5.92, 7.15, 8.53, 9.82, 9.7, 9.2, 8.48, 8.06, 8.91, 9.11, 8.72, 9.13, 7.51, 5.06, 3.39, 3.07, 3.96, 5.73, 8.68, 12.33, 14.86, 14.36, 13.86, 13.29, 7.35, -15.8, -13.28, -6.0, 0.0, 9.17, 8.85, 8.85, -0.0, 8.53, 8.22, 8.53, 8.53, 8.53, -4.49, -4.49, -4.65, -3.81, -3.94, -3.94, -3.94, -4.08, -2.9, -3.0, -3.0, -2.02, -2.09, -2.24, -2.24, -2.24, -2.24, -2.24, -2.24, -2.24, -1.23, -1.26, -1.26, -2.5, -2.5, -2.31, -2.24, -2.18, -2.11, -2.11, -2.04, -1.83, -1.83, -1.77, -1.77, -1.77, -1.65, -2.45, -2.54, -1.83, -1.08, -1.29, 0.0, 0.0, 0.0, -1.2, -1.25, -1.13, -2.24, -2.08, -0.97, -0.98, 0.0, 0.0, 0.98, 1.09, 2.23, 3.39, 4.15, 5.43, 5.69, 7.15, 8.93, 10.04, 10.09, 8.55, 8.48, 8.48, 9.33, 8.55, 8.8, 8.8, 4.4, 1.93, 3.39, 5.75, 7.73, 9.17, 10.02, 10.82, 12.64, 13.61, 14.16, 15.78, 16.78, -20.79, -12.96, -0.0, 3.14, 5.4, 5.6, 3.96, 3.82, 3.68, 3.68, 3.82, 3.82, 3.82, -4.49, -4.49, -4.65, -4.65, -3.81, -3.94, -4.08, -4.08, -3.12, -3.12, -3.22, -3.22, -3.22, -2.24, -2.24, -2.24, -2.24, -2.24, -2.24, -2.18, -2.35, -1.13, -1.26, -2.5, -2.5, -2.5, -2.24, -2.18, -2.11, -2.11, -2.04, -1.9, -1.83, -1.9, -1.77, -1.71, -1.71, -2.45, -2.45, -2.62, -1.9, -1.13, -1.25, 0.0, 0.0, 0.0, -1.25, -1.25, -1.2, -1.11, 0.0, 0.0, 0.0, 0.99, 1.04, 1.09, 2.23, 3.25, 3.98, 4.36, 4.8, 6.87, 8.93, 10.04, 10.09, 8.93, 7.81, 8.91, 8.8, 6.95, 7.27, 5.46, 4.6, 6.17, 9.55, 10.32, 10.4, 10.04, 10.12, 10.02, 10.75, 12.85, 14.88, 17.6, 19.61, -0.0, -5.28, -0.0, 4.65, 7.24, 5.4, 5.2, 2.82, 2.71, 2.93, -0.0, -0.0, -0.0, -4.49, -4.49, -4.65, -4.65, -3.81, -3.94, -4.08, -4.08, -4.08, -3.22, -3.22, -3.22, -3.32, -3.32, -2.24, -2.24, -2.24, -2.24, -2.24, -2.24, -2.43, -2.24, -2.31, -2.5, -2.5, -2.43, -2.24, -2.18, -2.11, -2.04, -2.04, -1.9, -1.83, -2.62, -2.62, -2.53, -2.53, -2.53, -2.53, -2.62, -1.77, -1.9, -1.13, -1.2, -1.28, -1.38, -1.43, -1.38, -1.28, -1.18, 0.0, 0.0, 1.09, 1.04, 1.04, 1.09, 2.13, 3.82, 3.82, 4.36, 5.32, 6.87, 8.73, 10.04, 9.67, 8.58, 8.8, 8.4, 6.95, 4.2, 4.4, 9.83, 9.97, 10.73, 10.73, 10.66, 10.46, 10.4, 10.41, 10.23, 9.8, 11.13, 15.72, 16.04, 17.46, 16.36, -0.0, 2.54, 7.44, 7.19, 6.7, 6.7, 3.04, 4.1, 3.96, -0.0, -0.0, -0.0, -4.49, -4.49, -4.65, -4.65, -3.81, -3.94, -4.08, -4.08, -3.12, -3.22, -3.22, -3.22, -3.32, -3.32, -2.24, -2.24, -2.24, -2.24, -2.24, -2.24, -2.24, -2.24, -2.31, -2.31, -2.43, -2.43, -2.24, -2.18, -2.11, -2.11, -2.04, -1.9, -2.72, -2.81, -2.62, -2.53, -2.53, -2.53, -2.53, -2.53, -1.71, -1.84, -1.98, -1.09, -1.2, -1.25, -2.81, -2.72, -1.28, 0.0, 0.0, 0.98, 0.98, 0.89, 0.93, 2.04, 3.11, 2.83, 3.65, 4.18, 5.1, 7.27, 7.59, 8.22, 9.42, 9.3, 9.2, 7.87, 7.27, 6.95, 8.18, 9.39, 8.05, 9.63, 10.41, 11.18, 10.75, 10.68, 10.8, 9.76, 10.02, 9.48, 11.38, 12.16, 12.19, -23.25, 2.89, 8.85, 13.41, 9.8, 0.0, 6.0, 6.0, 6.2, 9.48, 12.96, 12.96, 12.96, -4.49, -4.49, -4.49, -4.65, -3.81, -3.81, -3.94, -4.08, -3.12, -3.22, -3.22, -3.32, -3.32, -3.32, -3.32, -2.24, -2.24, -2.24, -2.24, -2.24, -2.24, -2.24, -2.24, -2.43, -2.43, -2.43, -2.24, -2.18, -2.11, -2.11, -2.04, -2.04, -2.92, -2.92, -2.62, -2.53, -2.53, -2.44, -2.44, -2.44, -1.71, -1.84, -1.84, -1.91, -1.0, -2.24, -2.32, -2.24, -1.09, 0.0, 0.93, 1.76, 1.76, 0.89, 0.93, 1.84, 1.84, 2.83, 3.11, 4.4, 5.1, 6.42, 6.7, 6.98, 7.54, 9.08, 8.93, 7.27, 8.23, 8.43, 8.05, 9.21, 9.21, 8.8, 9.75, 10.73, 11.06, 11.18, 10.68, 10.61, 9.76, 9.17, 8.66, 8.0, 1.18, 0.0, 13.99, 12.07, 0.0, 0.0, -6.6, -10.12, -0.0, 0.0, 13.41, 9.48, 9.48, 9.48, -4.49, -4.49, -4.49, -4.65, -3.81, -3.81, -3.94, -4.08, -4.08, -3.22, -3.22, -3.32, -3.32, -3.32, -3.32, -3.32, -3.32, -2.24, -2.24, -2.24, -2.24, -2.24, -2.24, -2.43, -2.43, -2.24, -3.22, -3.22, -3.12, -2.04, -3.02, -2.92, -2.92, -2.92, -2.81, -2.53, -2.53, -2.44, -2.44, -2.44, -1.77, -1.77, -0.89, -0.89, -0.89, -0.89, -1.0, -1.0, 0.0, 0.0, 0.89, 1.69, 1.76, 0.93, 0.89, 0.99, 1.84, 2.7, 2.97, 3.45, 5.46, 5.7, 6.42, 5.75, 8.22, 9.42, 10.04, 10.0, 9.55, 9.33, 9.33, 10.28, 10.28, 10.18, 9.75, 10.58, 11.18, 11.02, 10.6, 9.46, 9.16, 8.32, 7.68, 2.98, 2.84, 12.61, 12.01, -9.17, -10.79, -9.8, -8.85, -13.19, 0.0, 0.0, 12.39, 11.53, 11.53, 11.53, -4.49, -4.49, -4.49, -4.49, -3.81, -3.81, -3.94, -3.94, -4.08, -3.12, -3.22, -3.22, -3.32, -3.32, -3.32, -3.32, -3.32, -3.32, -3.32, -3.42, -3.32, -2.24, -2.43, -2.24, -2.24, -3.22, -3.22, -3.22, -3.12, -3.02, -3.02, -2.92, -2.92, -2.81, -2.81, -2.53, -2.53, -2.44, -2.44, -2.34, -2.61, -1.77, -0.97, -0.97, -0.86, -0.86, -0.89, 0.0, 0.0, 0.86, 0.89, 1.69, 0.0, 0.0, 0.0, 0.99, 1.94, 1.75, 2.97, 3.7, 4.2, 4.4, 5.29, 5.52, 7.9, 8.22, 10.35, 10.6, 10.08, 9.64, 9.83, 10.14, 10.58, 10.52, 10.38, 10.52, 11.02, 11.02, 9.7, 8.24, 8.59, 8.24, 8.6, 8.48, 14.01, 17.11, -0.0, -0.0, -9.48, -13.15, -10.43, -0.0, 0.0, 12.79, 13.88, 12.79, 12.79, 12.79, -4.49, -4.49, -4.49, -4.49, -3.68, -3.81, -3.94, -4.08, -3.12, -3.12, -3.12, -3.22, -3.32, -3.32, -3.58, -3.58, -3.58, -3.58, -3.32, -3.42, -3.42, -2.43, -2.43, -3.32, -3.22, -3.22, -3.22, -3.12, -3.12, -3.02, -3.02, -2.92, -2.92, -2.81, -2.81, -2.71, -2.53, -1.64, -2.44, -2.34, -2.51, -1.77, -1.91, -0.93, -0.93, -0.82, 0.0, 0.0, 0.0, 0.0, 0.89, 0.85, 0.0, 0.0, 0.0, 1.04, 1.94, 1.94, 2.17, 3.7, 4.2, 4.2, 3.11, 5.29, 6.71, 9.3, 9.97, 10.6, 10.41, 9.83, 9.13, 9.2, 8.55, 10.41, 9.6, 8.23, 10.38, 11.18, 10.0, 9.3, 8.93, 7.85, 10.31, 12.03, 15.41, 19.19, -0.0, 4.98, 4.38, 2.35, 5.48, 13.99, 15.2, 14.31, 14.03, 13.28, 13.28, 13.28, -4.49, -4.49, -4.49, -4.49, -3.68, -3.68, -3.81, -3.94, -3.25, -3.02, -3.12, -3.22, -3.22, -3.58, -3.58, -3.58, -3.58, -3.58, -3.58, -3.69, -2.5, -2.5, -3.69, -3.32, -3.22, -3.22, -3.47, -3.36, -3.12, -3.02, -2.92, -2.92, -2.81, -2.81, -2.81, -2.71, -2.71, -1.64, -1.58, -2.34, -2.51, -1.7, -1.84, -0.93, -0.89, -0.89, 0.0, 0.0, 0.0, 0.0, 0.0, 0.0, 0.0, 0.0, 0.0, 1.04, 1.04, 1.94, 2.17, 3.52, 2.97, 2.97, 3.11, 3.82, 6.44, 8.94, 10.0, 10.38, 10.28, 9.54, 9.2, 8.55, 7.59, 10.6, 10.0, 8.23, 6.95, 9.97, 9.96, 9.2, 8.73, 7.11, 7.71, 9.68, 10.66, 10.04, 0.0, 2.13, 7.13, 9.22, 10.75, 14.11, 15.65, 14.9, 14.47, 13.28, 13.28, 13.28, -4.49, -4.49, -4.49, -4.49, -4.65, -3.81, -3.81, -4.1, -4.24, -3.25, -3.12, -3.22, -3.22, -3.58, -3.58, -3.58, -3.58, -3.58, -3.58, -3.58, -3.69, -3.69, -3.69, -3.32, -3.22, -3.47, -3.47, -3.36, -3.02, -3.02, -2.92, -2.81, -2.81, -2.81, -2.71, -2.71, -2.71, -1.77, -1.64, -2.34, -2.34, -2.51, -1.84, -0.93, -0.89, -0.89, -0.89, 0.0, 0.0, 0.0, 0.0, 0.0, 0.0, 0.0, 0.0, 1.09, 1.04, 0.99, 2.17, 2.46, 2.46, 1.54, 1.62, 3.82, 4.6, 7.59, 9.6, 10.52, 10.28, 10.28, 9.75, 7.59, 7.59, 7.9, 8.93, 9.2, 8.18, 8.18, 10.28, 8.93, 5.75, 4.75, 3.76, 2.48, 3.65, 4.17, 0.0, -7.4, 3.58, 13.59, 14.99, 15.05, 15.65, 14.84, 13.99, 13.99, 13.99, 13.99, -4.49, -4.49, -4.49, -4.49, -4.65, -3.81, -4.1, -4.24, -4.24, -3.25, -3.12, -3.12, -3.22, -3.58, -3.58, -3.58, -3.58, -3.58, -3.58, -3.69, -3.69, -3.69, -3.42, -3.32, -3.47, -3.47, -3.36, -3.36, -3.25, -2.92, -2.92, -2.81, -2.81, -2.71, -2.71, -2.71, -2.61, -2.61, -2.61, -2.34, -2.34, -2.51, -1.84, -0.89, -0.97, -0.97, -0.89, -0.85, 0.0, 0.0, 0.0, -0.82, 0.0, 0.0, 0.0, 1.09, 1.04, 1.16, 2.46, 2.33, 1.26, 1.26, 1.54, 1.93, 5.46, 6.95, 8.55, 9.97, 10.28, 10.73, 7.59, 7.59, 4.8, 6.2, 5.95, 8.55, 6.95, 4.2, 9.83, 7.59, 5.0, 1.64, 1.38, 0.0, 0.0, 0.0, 0.0, -2.72, -7.0, 14.84, 15.65, 15.2, 15.53, 14.38, 13.97, 12.81, 12.81, 12.81, -4.49, -4.49, -4.49, -4.49, -4.65, -4.1, -4.1, -4.24, -4.24, -4.24, -3.36, -3.36, -3.47, -3.47, -3.58, -3.47, -3.47, -3.58, -3.58, -3.58, -3.69, -3.69, -3.69, -3.69, -3.47, -3.36, -3.36, -3.36, -3.25, -3.14, -2.92, -2.81, -2.81, -2.71, -2.71, -2.71, -2.71, -2.61, -2.61, -2.34, -2.51, -2.51, -1.76, -1.92, -0.97, -0.97, -0.93, -0.85, -0.85, -0.93, -0.93, -0.89, -0.98, 0.0, 0.0, 0.0, 1.04, 1.16, 1.33, 1.26, 0.0, 0.0, 1.47, 2.17, 2.97, 6.64, 8.8, 9.33, 9.33, 9.83, 8.8, 4.8, 3.39, 3.25, 3.25, 4.6, 4.6, 6.95, 9.83, 4.8, 2.71, 1.64, 0.0, 0.0, 0.0, 0.0, 0.0, 0.0, 0.0, 2.72, 13.8, 15.53, 15.55, 15.27, 13.99, 13.27, 13.27, 13.27, -4.49, -4.49, -4.49, -4.49, -4.81, -4.99, -4.1, -4.1, -4.24, -4.24, -3.36, -3.36, -3.47, -3.47, -3.47, -3.47, -3.47, -3.47, -3.58, -3.58, -3.58, -3.69, -3.69, -3.58, -3.47, -3.36, -3.36, -3.25, -3.25, -3.14, -3.14, -3.04, -2.93, -2.93, -2.71, -2.93, -2.93, -2.61, -2.61, -2.61, -2.51, -2.51, -2.71, -1.92, -0.97, -0.97, -0.93, -0.93, -0.93, -0.93, -0.89, -0.89, -0.98, 0.0, 0.0, 0.0, 0.0, 0.0, 1.33, 0.0, 0.0, 0.0, 1.67, 2.17, 2.17, 4.2, 6.64, 6.64, 6.64, 9.83, 9.83, 7.9, 5.0, 3.53, 3.11, 3.25, 4.6, 10.28, 7.27, 4.8, 2.71, 0.0, 0.0, 0.0, 1.12, 1.98, 2.05, 2.5, 2.66, 3.68, 8.51, 15.69, 16.41, 15.49, 14.03, 11.88, 11.88, 11.88, -4.49, -4.49, -4.65, -4.65, -4.99, -4.99, -4.1, -4.1, -4.1, -4.24, -4.24, -3.36, -3.47, -3.47, -3.47, -3.47, -3.47, -3.47, -3.47, -3.58, -3.58, -3.58, -3.58, -3.58, -3.47, -3.36, -3.36, -3.25, -3.25, -3.14, -3.14, -3.04, -2.93, -2.93, -2.93, -2.82, -2.82, -2.82, -2.61, -2.51, -2.51, -2.51, -2.71, -1.92, -1.92, -1.92, -1.92, -1.84, -1.84, -1.84, -1.76, -1.76, -0.98, 0.0, 0.0, 0.0, 0.0, 0.0, 0.0, 0.0, 0.0, 0.0, 0.0, 0.0, 0.0, 0.0, 0.0, 0.0, 0.0, 9.39, 9.83, 9.83, 8.8, 5.2, 3.25, 5.7, 7.27, 10.28, 9.2, 7.59, 5.0, 1.64, 1.43, 1.17, 2.38, 3.93, 4.76, 5.38, 5.07, 4.94, 7.6, 14.57, 16.12, 15.77, 14.18, 11.06, 11.06, 11.06, -4.49, -4.49, -4.65, -4.65, -4.99, -4.99, -4.1, -4.1, -4.1, -4.24, -4.24, -3.36, -3.47, -3.47, -3.47, -3.47, -3.47, -3.47, -3.47, -3.58, -3.58, -3.58, -3.58, -3.58, -3.47, -3.36, -3.36, -3.25, -3.25, -3.14, -3.14, -3.04, -2.93, -2.93, -2.93, -2.82, -2.82, -2.82, -2.61, -2.51, -2.51, -2.51, -2.71, -1.92, -1.92, -1.92, -1.92, -1.84, -1.84, -1.84, -1.76, -1.76, -0.98, 0.0, 0.0, 0.0, 0.0, 0.0, 0.0, 0.0, 0.0, 0.0, 0.0, 0.0, 0.0, 0.0, 0.0, 0.0, 0.0, 9.39, 9.83, 9.83, 8.8, 5.2, 3.25, 5.7, 10.28, 10.28, 9.2, 7.59, 5.0, 3.53, 2.62, 2.56, 3.33, 4.27, 5.65, 6.65, 6.36, 6.47, 6.64, 8.97, 14.3, 12.64, 9.17, 7.0, 7.0, 7.0]}]